GFSCGP_850_temp_084.txt.gz
Temp
15 14 14 16 17 17 17 16 16 18 19 18 18 19 19 20 21 21 21 21 21 21 22 22 23 23 24 23 21 19 19 17 15 13 16 17 18 15 14 11 11 12 12 12
16 15 17 18 18 18 17 16 16 17 18 18 18 19 20 20 21 21 21 21 21 21 21 22 23 23 23 22 21 19 18 16 14 14 16 16 15 14 12 13 12 12 12 12
16 17 19 17 17 16 17 16 16 16 17 18 17 17 19 21 20 20 21 21 21 21 21 22 23 23 22 22 20 18 17 15 14 14 14 14 12 12 12 11 11 12 12 12
16 18 18 17 16 17 15 17 17 16 16 14 18 15 18 20 21 22 21 21 20 21 22 22 22 23 22 21 19 18 16 14 14 13 13 14 15 13 12 12 12 11 11 11
15 16 16 15 15 17 16 17 17 16 15 15 15 15 18 20 21 22 22 22 22 21 22 22 22 23 21 21 19 18 16 14 14 13 13 13 14 12 12 12 11 10 11 11
16 17 17 17 16 17 17 15 16 15 15 13 15 16 17 18 19 19 21 21 20 21 21 22 22 22 21 20 19 18 16 14 14 13 13 14 13 12 12 11 11 11 11 11
17 17 17 17 15 16 15 14 13 13 14 13 14 13 18 17 18 19 20 18 17 15 14 16 18 22 23 20 19 17 16 15 14 13 13 13 13 12 12 12 11 11 11 11
15 15 18 17 15 15 15 14 13 12 12 13 15 11 16 18 17 14 14 14 13 12 11 11 13 18 22 19 18 17 16 15 14 14 13 13 13 12 11 11 11 11 12 11
14 15 17 17 17 16 15 14 16 13 14 13 15 15 13 12 15 14 13 12 11 9 8 8 11 17 21 19 17 16 16 15 14 14 13 12 12 12 11 11 11 11 11 11
13 12 16 16 16 16 15 16 12 10 11 12 16 16 11 10 11 12 12 10 8 7 5 6 8 12 17 18 17 16 16 15 14 14 13 12 12 11 11 10 11 11 10 10
12 10 11 14 12 14 15 14 14 13 12 11 11 10 8 9 10 11 11 9 6 4 3 6 7 9 11 13 15 15 14 13 14 13 13 12 11 10 10 11 10 11 10 10
10 6 8 12 16 16 16 16 15 11 12 13 13 12 10 12 12 11 10 7 4 2 3 4 5 7 10 10 11 11 12 12 13 11 12 11 10 10 10 10 10 10 10 10
9 8 8 11 14 16 13 15 13 12 11 11 9 11 11 12 13 10 9 6 4 1 3 3 4 5 7 8 10 10 10 11 11 10 10 9 9 9 10 10 9 9 10 10
7 7 7 7 9 9 9 10 12 13 10 12 12 12 13 12 13 12 8 4 2 0 1 2 2 2 3 6 8 9 10 10 10 10 9 9 9 9 9 10 9 9 9 9
8 6 7 8 10 10 9 7 10 10 10 11 13 14 13 12 12 10 7 4 2 0 -1 -0 1 0 1 3 4 7 8 9 9 9 9 9 9 9 9 9 9 9 9 9
5 6 7 7 9 10 9 11 10 9 8 9 10 14 10 9 11 8 6 4 2 -0 -1 -1 -1 1 -0 0 1 2 4 7 8 9 9 9 8 8 8 8 9 9 9 9
5 3 5 6 9 9 8 12 12 12 11 13 12 10 10 6 4 4 3 1 -0 -2 -2 -2 -2 -2 -1 -2 -1 -0 1 3 5 6 7 7 7 8 8 8 8 8 9 8
6 5 5 5 7 6 11 14 14 14 11 9 11 10 7 3 -0 -1 -1 -1 -2 -3 -3 -3 -3 -1 -1 -2 -2 -1 -0 1 2 2 3 3 5 5 5 6 7 6 7 7
8 6 4 5 6 7 12 14 13 13 6 8 9 9 7 2 1 -2 -3 -3 -3 -3 -3 -3 -3 -3 -1 0 -2 -1 -1 -0 -0 -0 0 -0 1 2 2 3 3 4 4 5
9 8 4 5 4 6 6 9 12 13 7 6 7 5 4 5 5 -1 -4 -4 -3 -3 -3 -3 -3 -3 -3 -2 -1 -0 -1 -1 -1 -2 -1 -1 -0 1 -2 -1 -1 0 2 2
7 5 4 4 4 5 4 7 11 10 5 4 3 1 -1 -1 -3 -4 -4 -4 -4 -4 -4 -4 -4 -4 -4 -3 -3 -3 -2 -1 -2 -1 -1 -1 -2 -0 0 -2 -3 -1 -0 1
6 6 6 6 5 5 3 6 5 2 2 2 0 -1 -3 -4 -5 -5 -5 -5 -4 -4 -5 -5 -4 -5 -5 -5 -5 -5 -4 -4 -3 -2 -1 -2 -3 -4 -2 -2 -3 -3 -1 -1
4 5 4 3 3 1 1 0 -1 -0 -0 -1 -1 -2 -4 -4 -5 -5 -6 -5 -5 -5 -5 -5 -5 -5 -5 -5 -5 -6 -6 -6 -6 -5 -4 -4 -4 -3 -3 -2 -3 -3 -4 -4
4 6 3 3 1 1 -1 -1 -2 -2 -2 -2 -3 -4 -4 -5 -6 -6 -6 -6 -6 -6 -6 -6 -6 -6 -6 -6 -6 -6 -6 -7 -6 -5 -5 -6 -4 -4 -4 -4 -4 -3 -4 -4
2 4 2 1 1 0 -1 -2 -2 -3 -3 -3 -4 -4 -5 -5 -6 -6 -7 -7 -7 -7 -7 -7 -7 -7 -7 -6 -6 -6 -6 -6 -6 -6 -5 -5 -4 -3 -3 -3 -4 -4 -5 -4
0 -1 0 1 -1 -1 -3 -3 -3 -3 -3 -3 -4 -5 -6 -6 -7 -7 -7 -7 -7 -8 -8 -8 -8 -8 -8 -7 -7 -7 -7 -7 -7 -7 -7 -7 -7 -6 -6 -6 -6 -6 -6 -6

GFSCGP_850_temp_087.txt.gz
Temp
14 10 9 10 11 13 13 13 13 14 15 15 15 15 16 17 18 18 19 19 19 20 20 21 21 22 22 22 22 20 20 19 19 19 18 18 15 15 16 15 14 13 12 12
12 11 13 14 14 14 14 13 13 14 15 15 14 14 14 16 17 18 19 19 19 20 20 21 21 21 22 22 20 20 20 19 19 20 18 18 15 15 16 15 14 12 11 11
11 13 15 15 15 15 14 13 13 14 15 15 14 14 14 16 17 19 20 20 20 20 21 21 21 21 22 22 21 20 20 20 19 18 17 16 13 13 13 13 13 14 11 11
13 15 15 15 15 15 13 15 15 15 14 12 14 11 14 16 17 18 18 20 19 20 21 21 21 21 22 21 21 20 20 18 19 17 17 16 14 14 15 14 13 12 11 11
12 13 13 14 14 15 14 15 14 13 13 11 13 12 13 15 16 18 13 15 18 19 20 20 20 21 22 21 20 20 20 18 18 18 17 14 13 13 13 13 12 11 11 11
13 15 14 14 15 15 15 14 13 12 12 10 12 12 12 14 15 15 13 12 11 11 14 15 16 17 19 21 20 20 20 19 18 17 16 13 13 13 13 12 12 11 11 10
13 14 15 15 13 15 13 12 9 9 9 10 14 12 12 11 12 12 12 11 9 8 10 13 15 16 18 17 19 19 19 18 16 16 14 13 13 13 12 12 11 11 11 10
11 11 14 15 14 13 12 11 8 9 10 11 14 12 12 8 11 11 10 10 8 6 8 9 11 14 16 19 19 18 18 17 16 15 13 13 13 12 12 12 11 11 11 11
10 11 13 15 15 14 13 11 13 11 11 10 12 14 12 10 10 10 11 9 6 5 6 8 9 11 14 17 18 19 18 17 15 14 13 13 12 12 12 11 11 12 11 11
9 8 12 13 14 14 13 13 8 8 9 10 13 11 9 9 10 10 9 8 5 3 4 7 8 9 11 13 15 17 17 17 16 14 14 13 12 12 12 12 11 12 11 11
10 8 8 10 12 11 12 12 12 11 10 9 9 10 8 8 10 9 8 6 4 2 2 4 6 8 9 10 14 14 15 15 15 14 14 13 12 11 11 11 11 12 11 11
8 7 6 8 10 11 11 12 11 9 10 10 10 9 9 9 9 9 7 5 3 1 1 3 5 7 9 9 10 12 12 12 13 13 12 12 12 11 11 11 11 11 11 10
6 5 4 7 10 9 8 8 7 7 9 8 9 10 9 9 10 8 5 3 1 1 1 1 4 5 6 7 9 11 11 11 11 12 11 11 10 11 10 10 10 10 10 10
7 5 5 4 6 8 5 7 8 7 7 8 8 10 11 11 8 6 4 2 0 -0 -1 -0 2 3 4 5 7 9 10 11 10 11 10 10 9 10 9 9 9 9 9 9
5 3 5 6 7 7 7 6 9 7 7 7 9 9 9 8 7 5 4 2 0 -1 -2 -2 -1 1 2 3 4 6 7 9 9 10 10 9 9 9 9 9 9 9 9 9
3 2 3 4 5 6 7 9 10 9 8 8 8 7 8 6 6 5 3 1 -0 -2 -2 -3 -2 -1 0 1 1 3 4 6 7 9 9 9 9 9 9 9 9 9 9 9
2 0 3 4 6 6 6 8 9 9 9 8 7 7 6 3 2 1 1 -1 -2 -3 -3 -3 -3 -3 -1 0 1 1 2 3 4 5 7 8 8 8 8 8 8 9 9 8
3 2 2 2 4 3 8 10 9 7 6 6 6 5 3 1 -2 -3 -2 -3 -3 -3 -3 -3 -3 -3 -2 -1 -0 1 0 1 2 2 3 4 6 7 7 7 7 7 7 7
5 3 2 3 2 5 8 4 4 7 5 6 5 5 2 -0 -2 -3 -4 -4 -4 -3 -3 -3 -3 -3 -3 -2 -1 0 0 0 1 0 0 -0 1 1 3 4 4 4 4 4
4 3 2 3 3 3 4 3 2 3 5 3 3 2 0 2 4 -3 -4 -4 -4 -4 -4 -4 -3 -3 -3 -3 -2 -1 0 0 -0 -0 -0 -0 0 -0 -0 -0 0 0 0 1
3 3 3 3 2 4 2 1 3 5 3 1 0 -2 -2 -3 -4 -5 -5 -4 -4 -4 -4 -4 -4 -4 -4 -3 -3 -2 -2 -3 -2 -1 -1 -1 -1 -1 0 -2 -0 0 -1 -2
5 4 4 4 3 4 0 2 3 2 0 -0 -2 -3 -4 -5 -5 -5 -4 -4 -5 -5 -5 -5 -5 -5 -5 -5 -4 -4 -4 -4 -3 -3 -2 -2 -3 -2 -3 -1 -2 -2 -1 -1
3 3 3 2 1 -0 -1 -1 -2 -1 -1 -2 -3 -4 -5 -5 -5 -5 -5 -5 -5 -5 -5 -6 -6 -6 -6 -6 -5 -5 -5 -4 -4 -3 -3 -3 -4 -3 -3 -3 -3 -4 -3 -4
2 3 2 2 -0 -1 -2 -2 -2 -2 -3 -4 -4 -5 -5 -6 -6 -6 -6 -6 -6 -6 -6 -6 -6 -6 -6 -6 -6 -6 -6 -6 -5 -5 -5 -5 -4 -4 -4 -5 -5 -4 -4 -4
0 1 0 1 -1 -2 -3 -3 -3 -3 -4 -4 -5 -5 -6 -6 -7 -7 -7 -7 -7 -7 -6 -6 -6 -6 -7 -6 -7 -6 -6 -6 -6 -6 -6 -5 -5 -5 -5 -5 -5 -5 -6 -6
-1 -1 -1 -1 -2 -2 -3 -3 -4 -4 -4 -4 -5 -6 -6 -6 -7 -7 -7 -7 -7 -7 -7 -7 -7 -7 -7 -7 -7 -7 -7 -6 -7 -7 -7 -7 -7 -7 -6 -5 -5 -6 -6 -6

GFSCGP_850_temp_090.txt.gz
Temp
12 10 8 9 9 11 11 11 10 12 13 13 12 12 14 15 15 15 16 17 18 18 20 20 20 20 21 21 21 21 20 20 20 19 18 18 17 16 16 14 14 14 13 13
11 9 11 11 11 11 11 11 11 12 13 13 13 13 15 14 14 16 16 16 17 18 18 19 20 20 21 21 21 21 21 21 20 19 19 19 18 17 17 16 13 13 13 12
9 11 13 12 12 12 12 11 11 12 13 13 12 12 14 14 14 16 16 16 13 13 17 19 19 20 21 20 21 20 21 21 20 20 19 17 17 16 16 15 13 13 12 12
11 13 13 13 12 13 12 13 13 12 11 11 13 10 13 13 14 15 16 11 10 10 12 17 18 18 20 20 21 20 21 21 20 20 19 18 19 18 17 17 14 13 12 11
11 13 12 12 13 14 13 13 13 12 10 10 12 10 13 12 10 10 11 10 8 10 8 9 13 16 19 20 20 19 20 20 20 19 19 17 17 17 18 16 14 13 12 11
11 13 13 12 14 14 14 14 12 12 10 9 11 10 10 10 9 10 10 9 7 9 8 7 8 13 17 18 16 17 18 20 18 19 18 17 17 16 16 14 13 13 11 11
12 12 13 14 12 13 13 10 8 8 8 8 12 11 11 9 9 9 10 8 6 6 6 6 6 11 14 14 15 15 16 17 19 18 18 16 15 15 16 14 12 13 11 11
9 9 12 12 12 11 10 10 8 8 9 10 12 10 10 10 9 9 8 7 6 8 4 5 5 8 11 15 16 18 18 19 19 17 16 14 14 14 14 13 13 12 12 12
7 8 10 11 11 12 11 9 11 9 10 8 10 10 10 11 10 9 8 6 4 3 3 3 6 8 9 12 15 16 17 18 18 17 15 14 14 14 13 13 12 11 11 11
8 6 9 9 11 12 12 11 9 6 8 8 10 12 10 10 10 10 8 5 3 2 2 3 5 7 8 9 11 13 15 16 18 18 16 14 13 13 13 12 11 11 11 11
7 7 7 8 9 7 7 8 8 8 8 8 7 8 9 9 9 9 7 4 1 1 0 2 4 5 7 8 10 11 14 15 15 16 16 13 13 13 12 12 11 11 11 11
6 6 5 6 8 9 9 8 7 7 7 8 8 9 10 9 9 6 4 3 1 -0 -0 0 2 4 6 7 9 13 13 11 12 13 14 13 13 12 12 11 11 11 11 11
6 4 3 5 7 7 7 7 7 6 6 6 7 8 10 9 6 5 3 1 0 -1 -1 -0 2 3 4 6 7 9 9 11 10 11 12 12 12 11 11 11 11 10 10 10
6 4 4 3 4 5 5 6 7 6 5 6 7 7 9 8 6 4 2 1 0 -1 -2 -2 -1 0 1 3 5 7 8 10 10 10 11 11 11 11 10 10 10 10 9 9
4 3 4 4 4 5 5 5 6 7 6 5 7 7 7 6 5 4 2 1 -0 -1 -3 -3 -2 -2 -0 1 2 4 6 8 9 10 10 10 11 10 10 10 10 9 9 9
2 2 3 3 4 5 4 5 6 7 8 9 8 8 3 3 3 2 1 -0 -1 -2 -3 -3 -3 -2 -1 -0 0 2 3 5 7 8 9 9 10 9 10 10 9 9 9 9
1 -0 0 2 4 4 4 5 6 8 9 8 7 6 4 1 0 -1 -1 -2 -3 -3 -3 -3 -3 -3 -2 -2 -0 1 1 3 4 5 6 8 9 9 9 9 9 9 8 8
-0 0 1 2 3 2 6 5 6 5 4 4 4 4 2 -1 -2 -3 -4 -4 -4 -4 -4 -3 -3 -2 -2 -2 -1 -0 0 2 2 2 3 4 6 7 7 8 8 8 8 8
3 2 1 1 2 5 6 4 3 2 3 2 2 3 0 -2 -2 -4 -4 -4 -4 -4 -4 -4 -4 -3 -2 -1 -2 -1 -0 0 2 1 1 2 1 1 2 4 4 4 5 5
3 3 1 2 3 1 2 2 1 1 3 1 0 0 1 -1 2 -3 -4 -4 -4 -4 -4 -4 -4 -3 -2 -2 -2 -2 -2 -1 -1 -1 -0 0 1 1 1 -0 0 1 2 2
2 2 2 2 2 3 0 0 -0 4 2 -1 -2 -3 -2 -2 -3 -4 -5 -5 -5 -5 -5 -5 -5 -4 -5 -4 -3 -2 -3 -3 -3 -2 -2 -1 -0 -0 0 0 -1 -0 -1 -0
3 3 3 3 3 3 -1 1 1 0 -2 -2 -3 -4 -5 -5 -5 -5 -5 -5 -5 -6 -6 -6 -6 -6 -6 -5 -4 -4 -4 -4 -3 -3 -3 -2 -2 -1 -2 -1 -1 -2 -1 -1
2 1 1 1 0 -1 -2 -2 -2 -2 -2 -3 -4 -4 -5 -6 -6 -5 -5 -5 -6 -6 -6 -6 -6 -6 -6 -6 -6 -5 -6 -5 -4 -4 -4 -3 -3 -3 -4 -3 -3 -4 -3 -3
1 -0 1 0 -1 -2 -2 -3 -3 -4 -4 -4 -5 -5 -5 -6 -6 -6 -6 -6 -6 -6 -6 -6 -6 -6 -6 -6 -6 -6 -6 -5 -5 -5 -5 -4 -4 -4 -4 -4 -4 -4 -4 -4
-0 -0 -1 -1 -2 -2 -3 -3 -3 -4 -5 -5 -5 -6 -6 -6 -7 -7 -7 -7 -7 -7 -6 -7 -7 -6 -6 -6 -6 -6 -7 -6 -6 -6 -6 -6 -5 -5 -5 -5 -5 -5 -5 -5
-1 -2 -1 -3 -3 -3 -4 -4 -4 -4 -5 -6 -6 -7 -7 -6 -7 -7 -8 -8 -8 -8 -7 -7 -7 -7 -7 -7 -7 -7 -7 -6 -6 -7 -7 -7 -6 -6 -5 -5 -5 -6 -6 -6

GFSCGP_850_temp_096.txt.gz
Temp
10 7 7 10 8 10 10 9 9 8 9 10 10 10 10 12 12 11 11 11 11 11 12 12 13 15 15 16 18 18 17 19 19 18 18 19 18 18 18 17 17 16 16 15
8 7 10 9 9 9 9 8 8 9 9 9 9 10 11 10 11 11 10 10 10 10 11 12 12 12 14 15 16 17 18 17 19 19 19 18 19 18 18 17 15 17 16 15
8 10 10 10 9 9 8 8 9 9 10 10 10 9 12 12 10 10 10 10 10 8 7 9 10 9 12 12 13 16 17 17 18 18 18 18 18 17 17 18 17 16 16 16
8 10 10 9 9 9 8 9 10 10 9 9 11 8 12 10 11 9 10 10 8 7 7 6 8 8 8 11 12 14 16 18 16 17 17 18 19 19 19 19 17 14 13 16
9 10 9 9 10 10 9 11 10 10 9 8 10 8 8 9 10 10 9 9 8 7 6 6 5 6 6 8 9 12 15 17 15 16 17 18 18 19 19 17 17 15 14 14
9 11 11 10 11 10 12 12 10 8 8 8 9 8 7 10 10 9 9 8 8 6 5 5 5 4 6 7 8 10 12 16 15 15 17 17 18 17 16 17 17 18 15 14
10 11 12 12 11 11 11 10 9 8 7 8 9 8 9 9 9 8 8 7 5 4 3 5 4 3 4 7 8 9 11 12 12 14 14 16 15 16 16 18 18 16 14 13
9 9 9 10 10 10 10 9 8 9 8 8 10 8 9 9 10 9 7 5 4 3 1 7 3 3 3 6 7 8 10 12 13 13 13 12 12 14 15 17 18 18 16 16
8 8 9 9 9 9 10 8 9 9 8 8 9 9 10 9 9 7 5 4 2 1 0 4 4 3 3 4 6 7 9 11 12 12 12 12 13 13 15 16 15 14 16 16
7 8 7 8 9 8 8 8 7 5 7 8 8 9 8 8 8 5 4 2 1 -0 0 2 2 2 3 4 6 7 9 11 12 13 12 12 12 13 14 14 14 14 15 14
6 7 7 8 7 6 6 6 6 6 6 7 6 5 6 5 4 4 3 2 0 -1 -1 -0 0 1 2 3 4 6 8 10 11 12 14 14 12 13 13 14 13 13 13 12
5 5 5 6 6 6 6 5 6 4 5 5 5 6 6 4 3 3 2 1 -1 -2 -1 -0 -1 -0 2 2 3 4 7 8 10 11 12 13 13 13 14 12 11 11 12 11
5 3 4 5 6 6 5 5 5 4 3 3 3 6 5 5 3 2 1 -0 -1 -2 0 -0 -1 -1 -0 1 2 2 4 7 9 9 10 11 13 13 13 11 11 11 11 10
5 3 4 4 5 3 4 4 4 2 -3 0 4 5 6 5 3 2 0 -1 -1 -2 -1 -1 -1 -2 -1 -1 0 1 3 5 7 9 10 9 10 11 11 10 11 11 10 10
3 3 3 3 3 3 3 3 3 2 3 1 4 4 6 5 3 1 -1 -1 -2 -3 -3 -2 -2 -2 -2 -1 -0 1 1 3 4 6 8 9 10 10 10 10 11 11 10 11
1 1 2 2 3 2 3 3 2 3 3 3 4 4 5 2 1 -1 -2 -2 -3 -4 -4 -3 -2 -2 -2 -2 -2 -1 1 2 3 4 5 6 8 8 9 10 10 10 10 9
1 -1 -0 1 3 3 3 3 3 3 4 4 3 4 3 0 -1 -2 -3 -3 -4 -4 -5 -4 -4 -3 -3 -3 -2 -2 -1 1 2 3 3 3 5 6 6 8 9 10 9 9
-1 -0 -1 -0 2 -0 3 2 2 2 3 1 2 4 3 -1 -3 -4 -4 -4 -4 -5 -5 -5 -5 -4 -3 -3 -2 -2 -1 -1 0 1 2 3 4 3 6 1 6 8 8 8
0 -0 -2 -2 -1 2 3 1 0 1 2 -0 0 0 -2 -3 -4 -4 -4 -5 -5 -5 -5 -5 -5 -5 -4 -3 -3 -2 -1 -1 -1 -1 -0 0 2 2 2 2 1 2 5 6
0 1 0 1 -1 -1 -1 0 1 0 1 -2 -2 -1 -1 -2 1 -4 -5 -5 -5 -5 -5 -5 -5 -5 -4 -4 -3 -3 -2 -2 -3 -2 -2 -1 -1 0 3 1 0 1 1 1
1 0 0 -0 -0 -0 -1 -1 -1 2 -1 -3 -4 -4 -2 -3 -4 -5 -5 -5 -6 -6 -6 -5 -5 -5 -5 -5 -4 -4 -4 -4 -4 -3 -3 -2 -1 -2 -2 -1 -0 -1 0 0
1 1 1 2 1 0 -2 -0 -1 -2 -3 -4 -5 -5 -5 -5 -5 -6 -6 -6 -6 -6 -6 -6 -6 -6 -6 -5 -5 -5 -5 -5 -4 -3 -3 -3 -3 -2 -3 -2 -3 -2 -1 -1
-1 -2 -1 -0 -2 -2 -3 -3 -4 -4 -4 -5 -5 -6 -5 -6 -7 -6 -7 -7 -7 -7 -7 -7 -6 -6 -6 -5 -5 -5 -6 -5 -5 -4 -3 -3 -3 -3 -3 -3 -3 -2 -2 -3
-1 -1 -1 -1 -2 -3 -3 -4 -5 -5 -6 -6 -6 -6 -6 -7 -7 -7 -7 -7 -7 -7 -7 -7 -7 -7 -7 -7 -6 -6 -6 -6 -5 -5 -5 -5 -4 -4 -4 -4 -4 -4 -4 -4
-1 -1 -1 -2 -2 -3 -4 -4 -5 -5 -6 -6 -6 -6 -6 -6 -7 -8 -8 -8 -8 -8 -8 -7 -7 -7 -8 -7 -7 -7 -7 -6 -5 -6 -6 -6 -5 -5 -5 -4 -5 -5 -5 -5
-1 -3 -3 -4 -3 -3 -4 -4 -5 -6 -6 -7 -7 -7 -8 -7 -8 -8 -8 -9 -9 -8 -8 -8 -8 -8 -8 -7 -7 -7 -7 -7 -6 -6 -6 -6 -6 -6 -6 -6 -6 -6 -6 -7

GFSCGP_850_temp_099.txt.gz
Temp
9 10 10 11 11 12 11 11 11 12 12 11 12 13 14 14 12 13 12 11 10 10 10 12 13 13 12 12 14 14 16 18 18 18 18 17 17 18 18 19 19 16 17 17
9 10 11 11 10 11 11 11 11 11 11 11 13 13 14 14 13 13 11 11 9 8 10 11 12 12 12 11 10 13 14 15 17 16 17 18 18 18 17 18 18 17 17 16
10 11 11 11 10 10 10 10 10 11 12 12 12 13 13 13 11 10 10 9 8 8 8 8 9 9 9 9 9 10 12 13 14 15 12 12 12 13 13 18 18 18 17 15
10 12 10 11 11 11 10 11 12 11 11 12 12 12 13 13 12 12 11 9 9 8 7 6 5 5 7 7 6 6 8 12 13 13 11 12 12 13 14 18 18 18 17 16
10 10 10 10 11 11 11 11 11 11 11 11 12 12 12 11 12 13 11 9 8 7 6 5 4 3 4 6 7 7 7 9 12 12 13 12 12 13 12 16 19 18 17 17
11 10 11 11 11 11 12 11 11 10 11 11 12 12 12 13 13 12 11 8 6 5 5 4 3 2 4 6 7 7 7 8 10 11 13 12 12 12 12 14 17 15 17 17
10 11 12 12 12 11 12 12 11 10 10 11 11 11 14 13 11 11 9 7 5 3 3 2 1 2 4 5 5 6 7 8 10 10 11 12 12 12 12 13 16 15 16 16
10 9 10 10 11 12 11 12 12 10 10 11 10 11 13 11 9 7 6 4 3 2 2 1 1 -0 2 3 4 5 6 8 9 11 12 12 12 12 12 12 13 15 17 18
9 8 9 9 10 10 10 11 10 10 10 10 12 12 11 10 8 7 5 4 2 1 0 -0 -0 -1 2 3 3 4 5 7 9 11 12 12 12 12 12 12 12 14 16 16
8 8 8 9 10 10 10 9 9 9 10 10 11 11 11 8 6 6 5 4 2 1 0 -0 -1 -1 2 2 3 4 5 6 9 11 12 11 12 11 11 12 12 14 12 13
7 8 7 8 7 7 9 9 7 8 8 9 10 10 7 7 6 5 4 3 1 0 -1 -1 -1 -1 1 1 2 3 5 7 9 10 11 11 11 11 11 12 12 11 13 15
5 6 7 6 6 7 7 6 6 8 7 6 6 8 7 6 5 4 3 2 0 -0 -1 -2 0 0 0 0 2 3 4 6 6 10 10 10 11 11 11 12 12 12 13 14
6 6 6 6 6 7 6 6 5 5 5 5 6 8 6 5 4 2 1 0 -0 -1 -2 -2 0 -1 -1 -1 0 1 2 4 6 9 10 10 10 10 11 11 12 12 12 13
6 5 6 7 5 5 5 5 5 4 4 4 6 8 8 8 7 4 1 -0 -1 -2 -3 -3 -1 -2 -2 -2 -1 -0 1 3 4 6 8 9 10 10 10 10 11 12 12 11
4 4 4 5 4 4 4 5 4 4 4 3 6 5 6 7 7 2 -0 -1 -2 -3 -3 -4 -3 -3 -2 -2 -1 -0 1 2 2 4 6 7 8 8 10 10 10 10 12 11
2 3 3 3 4 4 3 4 4 4 4 4 5 5 7 6 1 -0 -1 -2 -3 -4 -4 -4 -4 -4 -3 -3 -2 -1 -1 -1 1 2 4 4 6 7 8 9 9 9 10 10
3 2 2 2 3 3 3 4 4 4 4 4 3 5 6 1 0 -1 -2 -3 -4 -4 -5 -5 -4 -5 -4 -3 -3 -2 -2 -1 -1 0 1 2 2 3 4 6 8 8 7 9
2 2 1 2 2 2 3 2 3 2 3 1 2 2 4 1 -3 -4 -4 -4 -4 -5 -6 -5 -5 -4 -4 -4 -3 -2 -2 -2 -2 -1 -1 -0 1 1 2 3 2 3 3 6
2 2 1 1 2 3 2 1 0 1 1 -1 -1 -0 -2 -3 -4 -4 -5 -5 -6 -6 -6 -6 -5 -5 -5 -4 -3 -3 -2 -2 -2 -2 -2 -1 -1 -0 1 3 2 2 0 0
1 2 2 1 1 2 0 1 0 0 1 -2 -3 -2 -2 -3 0 -3 -6 -6 -6 -6 -6 -6 -5 -6 -5 -5 -4 -4 -3 -3 -3 -3 -3 -2 -1 -1 -1 -0 0 0 1 0
1 1 1 1 2 2 -1 -1 -1 1 -0 -3 -4 -4 -2 -4 -5 -6 -6 -6 -6 -7 -6 -6 -5 -6 -6 -6 -5 -4 -5 -5 -4 -4 -3 -3 -2 -2 -1 -1 -1 -1 -0 0
2 2 2 2 1 1 -2 -0 -0 -2 -4 -5 -5 -6 -6 -6 -6 -7 -7 -7 -6 -6 -6 -6 -6 -6 -6 -6 -6 -6 -5 -6 -5 -4 -4 -3 -3 -3 -3 -2 -2 -2 -2 -2
1 -0 1 -0 -0 -2 -3 -4 -5 -5 -5 -5 -6 -6 -6 -7 -8 -7 -7 -7 -7 -7 -7 -7 -6 -6 -6 -6 -6 -6 -6 -5 -5 -5 -5 -5 -4 -4 -4 -4 -4 -3 -3 -3
0 -1 -0 -1 -2 -2 -4 -5 -5 -6 -6 -6 -6 -6 -7 -8 -8 -8 -8 -8 -8 -7 -7 -7 -6 -7 -7 -7 -6 -7 -7 -6 -5 -5 -5 -5 -5 -5 -5 -4 -5 -5 -5 -4
-0 -0 -1 -1 -2 -3 -4 -5 -6 -6 -6 -7 -7 -8 -8 -8 -8 -8 -9 -8 -8 -8 -8 -8 -7 -7 -7 -7 -7 -7 -7 -6 -6 -6 -6 -5 -5 -5 -6 -6 -7 -7 -6 -6
-1 -2 -1 -1 -2 -3 -4 -5 -6 -6 -7 -7 -8 -8 -8 -8 -8 -8 -9 -9 -9 -9 -9 -8 -8 -8 -8 -7 -7 -7 -7 -7 -6 -6 -6 -7 -7 -6 -6 -7 -7 -7 -7 -7

GFSCGP_850_temp_102.txt.gz
Temp
11 10 13 15 15 16 15 17 17 17 18 15 16 17 18 18 18 18 18 16 15 14 13 13 12 11 10 10 9 9 13 14 14 13 13 14 14 14 18 15 14 18 19 18
11 10 14 15 15 14 14 15 16 17 17 16 17 17 19 19 19 18 17 16 14 14 13 12 11 10 10 9 8 7 8 10 10 9 10 13 15 14 13 13 14 18 17 18
9 12 13 14 13 12 13 14 15 15 16 16 16 17 18 18 17 16 15 14 13 12 12 11 10 9 8 8 7 6 6 6 9 8 9 11 13 14 13 12 14 17 16 17
7 9 9 12 12 13 13 15 14 15 15 16 17 17 17 18 17 16 15 14 13 12 10 10 9 8 6 6 4 7 7 6 7 8 7 9 12 14 14 13 15 16 15 16
9 10 8 8 13 14 13 15 14 15 15 15 16 15 19 18 16 16 16 13 12 10 9 8 7 6 6 4 5 7 7 7 7 7 7 7 10 13 15 13 12 13 14 18
8 8 8 9 9 11 13 13 14 14 15 14 16 16 18 17 17 16 15 12 10 9 8 7 7 6 5 4 3 5 7 7 7 7 8 8 9 12 14 14 12 12 13 15
9 9 12 12 12 12 11 12 11 11 12 13 16 16 18 17 16 15 13 11 9 8 7 7 6 5 4 2 3 5 6 6 7 7 8 9 9 11 13 13 13 12 13 14
9 9 12 13 13 13 12 13 11 11 13 15 14 14 15 13 12 11 9 9 8 7 6 6 4 3 2 1 1 5 6 6 7 8 9 10 10 11 12 12 12 12 13 13
11 10 12 12 12 13 13 13 15 13 14 14 16 15 13 11 10 10 9 9 8 6 5 4 3 2 1 1 2 3 5 5 6 7 9 11 12 12 12 12 12 12 12 12
10 9 11 11 12 12 13 15 11 12 11 12 15 15 15 11 11 11 10 9 7 6 4 3 2 1 0 0 2 3 4 3 5 7 9 11 12 12 12 12 12 12 12 12
9 10 10 10 11 12 12 12 11 12 12 12 13 14 11 10 10 10 10 7 6 5 3 2 1 1 -0 -1 1 3 5 4 6 7 9 10 10 11 11 11 11 11 12 12
9 10 10 9 9 10 10 10 11 11 11 11 11 12 11 10 9 8 8 6 4 3 2 1 1 0 -1 -1 1 2 3 4 4 5 7 9 10 10 11 11 11 11 11 11
8 9 8 8 9 9 9 8 8 8 8 9 10 12 10 8 9 7 5 4 4 2 1 1 0 -1 -1 -2 -1 2 2 2 3 4 6 8 9 10 10 10 10 11 11 10
8 9 9 10 9 9 7 7 8 7 7 9 10 11 10 10 11 10 6 3 3 1 -0 -1 -1 -1 -2 -3 -2 1 1 0 1 1 4 6 8 9 10 10 10 10 10 12
7 8 7 7 7 7 7 7 8 7 8 6 9 9 10 10 9 8 4 3 1 -1 -2 -2 -2 -3 -3 -3 -2 -1 -0 -0 -1 1 5 5 6 9 7 10 10 10 10 10
6 5 6 6 7 7 6 8 8 8 8 8 8 8 9 7 5 3 2 1 -0 -2 -3 -3 -3 -4 -4 -4 -2 -2 -1 -2 -1 -0 -0 1 4 5 6 7 9 9 9 9
5 5 5 6 6 6 6 7 8 8 8 7 7 7 6 6 3 1 0 -1 -2 -3 -4 -5 -5 -5 -5 -4 -3 -3 -2 -2 -2 -1 -1 0 1 1 3 4 5 4 7 7
5 5 5 5 5 4 5 5 4 4 5 3 4 4 2 0 -2 -3 -3 -3 -4 -5 -6 -6 -6 -6 -5 -4 -3 -3 -3 -3 -3 -2 -1 -1 0 1 1 1 2 2 2 4
6 5 4 4 6 6 3 2 1 1 3 -0 0 1 -0 -2 -2 -4 -5 -6 -6 -6 -6 -7 -6 -6 -5 -4 -4 -4 -3 -4 -3 -3 -3 -2 -2 -1 -1 0 0 1 1 1
4 5 5 4 4 5 2 3 2 1 2 -1 -2 -1 -0 -1 2 -2 -6 -6 -6 -7 -7 -7 -7 -6 -5 -5 -4 -4 -4 -4 -4 -4 -4 -3 -3 -2 -2 -2 -1 -1 0 1
3 3 4 5 5 3 0 2 1 2 1 -2 -3 -4 -2 -2 -4 -6 -6 -7 -7 -7 -7 -7 -7 -7 -7 -6 -5 -5 -5 -5 -5 -4 -4 -3 -3 -4 -3 -3 -3 -2 -2 -1
4 4 4 5 4 4 0 2 1 -2 -3 -4 -5 -5 -5 -6 -7 -7 -7 -7 -7 -7 -8 -7 -8 -8 -8 -8 -7 -6 -6 -5 -5 -5 -4 -4 -4 -4 -4 -4 -4 -3 -3 -3
3 1 3 2 1 -1 -2 -3 -4 -4 -4 -5 -6 -6 -7 -7 -7 -7 -8 -8 -8 -8 -8 -8 -8 -8 -8 -8 -8 -8 -8 -7 -5 -4 -5 -5 -4 -4 -4 -4 -4 -5 -4 -4
2 2 2 1 -0 -1 -3 -4 -5 -5 -6 -6 -6 -7 -7 -8 -8 -9 -8 -8 -8 -9 -9 -9 -8 -9 -9 -9 -9 -9 -8 -7 -8 -7 -6 -5 -5 -5 -4 -4 -4 -4 -4 -5
3 3 2 -0 -1 -2 -3 -4 -5 -6 -7 -7 -7 -7 -8 -8 -9 -9 -9 -10 -9 -9 -9 -9 -10 -10 -10 -10 -9 -9 -9 -8 -8 -8 -8 -8 -8 -8 -8 -6 -6 -6 -6 -5
2 1 2 2 0 -1 -3 -5 -6 -6 -7 -7 -8 -8 -9 -9 -9 -10 -10 -10 -10 -9 -9 -8 -8 -9 -9 -9 -8 -7 -8 -8 -9 -8 -8 -8 -9 -9 -9 -9 -9 -8 -7 -7

GFSCGP_850_temp_105.txt.gz
Temp
14 13 14 16 17 17 17 17 18 21 23 21 20 20 22 22 21 21 21 20 20 19 17 16 14 13 13 12 12 11 11 11 11 11 12 14 15 16 16 15 16 16 14 14
14 11 15 16 16 15 15 16 16 18 20 20 19 20 21 22 22 21 21 20 19 17 16 15 14 13 11 11 10 9 9 9 9 9 10 11 12 14 16 16 15 15 14 14
15 14 14 13 12 9 11 13 15 13 15 19 19 18 20 22 22 21 20 19 17 16 15 14 13 12 11 10 8 7 7 8 8 7 8 9 10 12 15 15 15 14 14 14
14 15 13 11 10 10 8 12 14 13 15 15 19 17 21 22 20 20 19 17 17 15 14 13 12 11 10 9 7 6 5 6 6 6 6 6 8 12 14 15 16 14 14 14
12 12 11 12 11 11 9 12 11 13 14 16 17 17 20 21 19 19 18 17 15 13 12 12 11 10 9 8 7 5 4 4 4 4 6 7 6 8 11 14 16 16 14 13
9 8 10 12 12 9 9 9 12 13 14 13 14 16 19 19 20 19 18 16 13 12 12 11 10 9 8 7 5 4 3 3 3 6 7 7 7 7 9 12 15 15 14 13
9 9 8 10 9 9 8 7 8 9 10 12 17 16 16 18 20 19 17 14 12 12 11 10 9 8 7 5 4 3 2 2 4 6 6 6 6 8 7 9 13 15 14 13
9 9 10 10 9 9 9 8 9 9 10 11 15 13 13 16 16 14 13 12 12 11 10 9 8 6 5 4 3 1 1 3 4 5 7 7 8 8 8 9 12 13 13 14
11 12 14 14 13 13 10 11 13 12 13 13 12 13 13 13 13 13 13 12 11 10 9 8 7 5 4 3 2 0 0 2 5 5 7 7 9 9 10 11 12 13 13 13
10 10 14 14 14 14 13 13 11 11 10 12 15 14 14 12 13 13 12 11 10 9 8 7 6 5 3 2 1 -0 -0 2 4 5 6 7 10 11 12 12 12 13 13 12
11 11 11 12 13 11 13 10 11 11 11 12 13 12 11 12 13 12 11 10 9 8 6 6 5 4 3 2 1 -1 -1 1 4 6 6 8 10 11 11 11 12 12 12 13
11 11 10 12 11 12 12 13 12 9 11 10 12 11 12 12 12 11 11 9 8 6 5 5 4 3 2 1 -0 -1 -1 1 1 3 6 7 8 9 10 12 11 12 13 13
11 9 10 11 11 12 12 13 12 12 11 11 11 11 12 11 12 12 12 9 8 5 4 3 3 2 1 -0 -1 -2 -1 1 1 2 4 7 6 7 9 10 11 11 11 11
8 10 11 10 11 12 10 11 11 10 9 11 12 13 12 13 12 11 10 7 6 4 2 1 1 1 -0 -1 -2 -2 -3 -1 0 2 2 6 5 4 7 8 9 11 11 11
9 8 10 10 10 10 10 10 11 10 10 9 11 11 12 10 10 8 6 5 4 2 1 -0 -1 -1 -2 -3 -3 -3 -4 -2 -1 0 1 1 1 2 4 7 7 9 10 10
8 9 8 9 9 9 9 10 10 10 10 10 11 10 9 8 7 4 3 3 1 -0 -1 -2 -3 -3 -4 -4 -4 -4 -5 -4 -2 -1 -0 -0 0 2 4 4 5 8 7 9
8 7 7 9 8 8 8 9 10 10 11 10 9 8 7 5 2 -0 0 -0 -1 -2 -3 -4 -4 -5 -5 -5 -5 -5 -5 -4 -2 -2 -2 -1 -1 0 1 1 3 6 4 6
7 7 7 8 7 6 7 7 7 6 8 7 7 6 4 1 -1 -2 -3 -3 -3 -4 -5 -6 -6 -6 -5 -5 -6 -6 -6 -4 -3 -2 -2 -2 -2 -2 -1 -1 -0 0 1 1
8 8 7 6 8 8 7 5 2 2 4 1 3 3 3 0 -1 -3 -4 -5 -6 -6 -6 -6 -6 -6 -6 -6 -6 -6 -5 -4 -3 -4 -4 -4 -3 -3 -2 -2 -1 -1 0 0
7 7 7 7 7 7 4 5 5 3 4 1 0 1 1 1 2 -2 -5 -6 -6 -6 -6 -6 -6 -6 -6 -6 -6 -5 -5 -5 -5 -5 -5 -4 -4 -4 -4 -4 -3 -3 -2 -3
5 6 6 7 7 3 3 5 3 3 2 -1 -2 -3 -1 -0 -3 -6 -6 -7 -7 -6 -6 -6 -7 -7 -7 -6 -6 -6 -6 -6 -6 -5 -4 -4 -5 -5 -5 -5 -4 -4 -4 -3
6 6 6 8 6 5 2 4 2 -1 -2 -2 -4 -4 -4 -5 -6 -7 -7 -7 -7 -7 -7 -7 -7 -7 -7 -7 -7 -7 -6 -6 -6 -5 -5 -5 -4 -4 -5 -4 -5 -4 -4 -4
4 3 4 3 2 -1 -1 -2 -3 -2 -2 -4 -5 -6 -6 -7 -7 -8 -8 -8 -8 -8 -7 -7 -7 -7 -8 -8 -8 -7 -6 -6 -7 -7 -7 -6 -5 -4 -4 -4 -4 -4 -5 -5
4 4 3 3 0 -0 -2 -3 -4 -4 -4 -5 -5 -6 -7 -8 -8 -8 -8 -8 -9 -9 -8 -8 -7 -8 -8 -8 -8 -8 -7 -6 -6 -7 -7 -7 -8 -6 -6 -5 -5 -5 -5 -5
6 5 3 0 -0 -1 -2 -3 -4 -5 -6 -6 -7 -7 -7 -7 -7 -8 -8 -9 -9 -10 -10 -9 -9 -9 -9 -9 -9 -9 -8 -7 -7 -7 -8 -7 -8 -8 -8 -7 -8 -8 -8 -7
5 2 3 3 2 1 -2 -4 -5 -5 -6 -6 -6 -6 -7 -7 -8 -8 -9 -9 -9 -10 -10 -10 -11 -10 -10 -9 -8 -10 -10 -9 -9 -8 -8 -9 -8 -8 -8 -9 -8 -9 -9 -8

GFSCGP_850_temp_108.txt.gz
Temp
15 14 14 15 17 17 17 17 16 18 20 19 19 18 22 23 22 22 21 21 21 21 18 16 15 14 13 12 11 11 10 11 11 11 11 11 12 13 14 15 15 16 16 16
15 15 16 17 16 16 16 15 14 15 17 18 17 15 14 22 22 22 21 21 21 21 18 16 14 13 12 11 10 10 9 11 11 11 11 11 11 12 13 15 15 16 16 15
14 16 17 16 15 14 15 15 13 13 15 15 15 13 14 19 22 22 22 22 21 18 17 15 14 12 11 10 9 8 8 8 9 8 9 8 9 10 11 14 15 16 15 16
14 16 16 16 15 14 13 14 14 13 11 9 13 10 13 17 20 21 22 21 18 16 15 14 13 11 11 9 8 7 6 7 6 7 8 7 6 6 10 11 13 14 15 15
14 14 14 13 15 15 13 10 10 9 9 10 11 10 13 17 17 19 20 18 16 14 14 13 11 10 9 8 6 5 6 7 8 7 7 7 7 7 7 9 12 13 14 15
12 11 11 12 13 13 10 8 9 9 9 8 11 11 11 15 18 20 19 15 14 13 12 11 10 9 8 6 5 5 6 6 5 5 6 6 6 8 7 7 8 12 13 14
12 11 12 11 11 12 10 6 8 8 8 10 14 12 11 15 14 19 14 14 13 12 11 10 9 7 6 5 4 3 4 4 2 4 5 5 6 6 6 7 7 9 13 12
11 11 12 12 11 11 10 7 9 8 9 11 13 9 10 11 13 11 10 11 12 11 10 9 8 6 5 4 3 2 2 2 2 4 4 5 5 5 6 7 8 8 11 11
12 12 14 13 12 12 8 7 10 9 9 8 10 12 12 11 12 11 9 10 11 10 9 8 7 6 4 3 2 1 1 1 2 3 3 5 5 5 6 8 8 9 11 12
10 11 12 13 13 13 11 12 7 7 8 9 13 12 10 11 11 12 10 10 10 9 8 7 6 5 3 2 1 0 -1 -0 1 2 2 3 5 6 7 9 10 11 11 11
10 11 11 11 12 13 13 12 8 7 11 10 11 9 7 7 7 10 11 10 9 8 6 6 5 4 2 1 -0 -1 -1 -0 1 1 2 3 4 7 7 9 10 11 11 11
12 11 10 11 14 14 14 12 9 8 8 8 9 9 7 6 9 11 11 9 8 7 5 4 4 3 1 -0 -1 -2 -2 -1 -1 0 1 2 4 6 6 8 9 10 11 13
11 10 9 9 11 13 12 12 13 11 11 10 9 10 7 10 12 11 10 9 7 5 4 2 2 1 -0 -1 -2 -2 -3 -2 -1 -0 0 1 3 5 6 7 8 9 10 12
9 11 10 9 8 12 11 12 13 12 8 10 11 10 9 10 11 9 8 7 5 3 2 0 -0 -1 -2 -3 -3 -3 -4 -3 -2 -1 -1 -0 1 2 3 5 7 8 8 10
10 8 10 11 11 11 12 12 12 11 11 10 11 11 9 8 8 7 6 5 3 1 0 -1 -2 -3 -4 -4 -4 -4 -4 -3 -3 -2 -2 -2 -0 1 2 2 3 5 7 8
8 7 9 9 11 11 10 11 11 11 11 11 11 11 7 5 4 3 3 2 1 -0 -2 -3 -3 -4 -5 -5 -5 -5 -5 -4 -3 -3 -3 -2 -1 0 0 0 1 2 4 7
8 8 8 8 10 9 8 9 11 11 11 11 9 7 6 3 1 -0 -0 -1 -2 -3 -4 -5 -5 -5 -6 -6 -5 -6 -6 -4 -4 -4 -4 -3 -2 -1 -1 -1 -0 0 1 2
8 8 8 8 8 6 8 8 8 7 6 6 6 6 3 1 -1 -3 -3 -3 -4 -5 -5 -6 -6 -6 -6 -6 -5 -5 -5 -5 -5 -5 -4 -3 -3 -3 -3 -2 -2 -2 -1 -0
9 8 7 7 7 8 8 6 3 3 3 2 3 4 2 -0 -2 -4 -5 -5 -6 -6 -6 -6 -6 -6 -6 -6 -6 -6 -6 -5 -5 -5 -4 -4 -4 -4 -4 -4 -4 -4 -3 -2
9 9 7 7 7 7 4 6 6 4 3 1 0 0 1 0 1 -3 -6 -6 -6 -6 -6 -6 -6 -6 -6 -6 -6 -6 -6 -6 -6 -5 -4 -4 -5 -4 -5 -5 -5 -4 -4 -4
6 6 6 7 7 3 4 6 5 3 1 -2 -2 -3 -1 -2 -4 -6 -6 -7 -6 -6 -6 -6 -6 -7 -7 -6 -6 -6 -6 -6 -6 -5 -5 -5 -4 -5 -4 -4 -4 -5 -5 -4
6 6 6 7 7 5 2 4 3 -0 -1 -3 -4 -4 -5 -5 -6 -7 -7 -7 -6 -6 -6 -6 -7 -7 -7 -7 -7 -6 -6 -6 -6 -6 -6 -6 -5 -5 -4 -4 -4 -4 -4 -4
5 3 4 2 2 0 -1 -2 -2 -2 -2 -4 -4 -5 -5 -6 -7 -7 -7 -7 -7 -7 -7 -7 -7 -7 -8 -8 -8 -7 -6 -6 -7 -7 -7 -7 -6 -6 -5 -5 -5 -4 -4 -4
5 5 3 3 1 -0 -2 -2 -3 -3 -4 -5 -5 -6 -6 -7 -7 -7 -8 -8 -8 -8 -8 -8 -8 -8 -9 -9 -8 -8 -7 -6 -7 -7 -7 -8 -8 -7 -7 -7 -6 -6 -6 -5
7 6 3 1 0 -1 -1 -3 -4 -5 -5 -5 -6 -6 -7 -7 -7 -7 -8 -8 -9 -9 -9 -9 -9 -9 -9 -8 -8 -9 -9 -8 -8 -8 -8 -8 -8 -8 -9 -8 -9 -9 -9 -9
6 3 4 4 2 1 -2 -3 -4 -5 -5 -5 -5 -6 -7 -7 -8 -8 -8 -9 -9 -10 -10 -9 -8 -8 -8 -8 -7 -7 -8 -8 -8 -8 -9 -9 -9 -9 -9 -9 -9 -9 -10 -10

GFSCGP_850_temp_111.txt.gz
Temp
13 10 9 10 12 13 13 13 13 14 15 15 14 14 12 14 15 16 19 21 21 18 16 15 14 14 14 14 13 12 12 11 11 11 12 13 14 15 16 16 16 15 15 14
11 10 12 13 13 13 13 13 12 13 15 14 13 12 13 14 14 15 16 21 20 15 14 14 13 13 12 11 11 11 10 10 10 11 11 10 11 12 13 15 15 15 15 15
11 13 14 14 13 14 14 12 12 12 13 13 11 11 12 14 15 16 17 19 20 15 13 12 12 11 10 10 9 9 9 9 10 10 11 11 11 10 10 11 12 14 15 15
11 14 13 13 13 14 12 13 10 10 9 8 9 9 11 12 13 15 16 17 14 12 12 11 10 9 9 9 9 8 7 8 8 9 10 9 8 9 10 9 11 11 13 14
12 13 12 11 12 11 11 9 9 8 8 9 9 8 11 13 13 15 14 14 12 11 11 10 9 9 8 9 8 6 7 7 8 8 8 8 8 8 8 8 8 10 11 12
12 11 10 10 12 11 9 8 9 8 8 7 9 10 10 11 13 11 12 13 11 10 9 8 8 8 7 7 7 6 7 7 8 8 7 7 7 8 8 9 8 7 8 11
11 10 10 11 9 10 7 7 6 6 7 7 12 10 9 12 12 12 11 8 9 8 8 7 6 5 6 4 4 4 6 6 7 7 7 6 6 7 7 8 8 8 7 8
9 8 12 11 10 9 7 7 6 7 7 9 10 8 9 10 8 7 6 6 6 7 7 6 5 4 3 3 2 3 4 4 4 5 6 5 6 7 7 6 7 6 7 8
9 11 12 12 12 10 8 6 9 7 8 6 8 10 10 7 7 6 6 6 6 7 6 5 4 4 3 2 1 1 1 2 3 4 4 5 5 6 6 6 6 6 7 8
10 8 12 13 11 10 9 9 6 6 7 8 11 10 6 5 4 5 5 7 6 5 5 4 3 2 2 1 -0 0 0 0 0 2 3 4 4 4 5 5 6 6 8 9
9 9 10 11 10 9 9 9 8 7 7 8 9 8 4 3 4 4 4 5 5 4 3 2 1 1 -0 -1 -2 -3 -1 -1 -0 0 2 3 3 4 4 5 5 6 7 8
9 9 8 10 11 12 12 10 9 6 7 7 7 7 5 5 5 5 7 4 3 2 2 1 -0 -1 -2 -3 -3 -3 -3 -2 -1 -0 1 1 1 1 3 3 4 6 7 8
7 5 7 9 9 10 10 11 9 9 7 7 7 7 7 6 8 7 5 4 2 1 -0 -1 -2 -3 -3 -3 -4 -4 -3 -2 -1 -1 -0 0 0 0 1 2 4 4 6 8
9 9 8 7 7 8 9 11 11 9 5 7 8 7 6 8 6 5 3 2 1 -1 -2 -2 -3 -4 -4 -4 -4 -4 -3 -2 -2 -1 -1 -1 -1 -1 -1 1 2 3 4 6
8 6 9 10 9 10 10 11 11 11 9 7 9 6 5 4 3 3 2 1 -0 -2 -3 -3 -4 -5 -5 -5 -5 -5 -4 -3 -3 -2 -2 -2 -3 -3 -1 -0 0 1 2 3
7 5 8 7 10 10 9 10 10 10 10 10 7 3 3 2 1 0 0 -1 -2 -3 -4 -5 -5 -6 -6 -6 -6 -5 -4 -4 -3 -3 -3 -3 -4 -4 -3 -2 -1 0 0 0
5 5 6 5 8 9 7 8 9 8 5 7 4 4 2 1 -1 -2 -2 -3 -4 -5 -5 -6 -6 -6 -6 -6 -6 -5 -5 -5 -4 -4 -4 -4 -4 -4 -4 -3 -2 -3 -2 -2
6 5 5 6 6 5 6 7 6 4 3 4 4 3 1 -2 -3 -4 -5 -5 -5 -5 -6 -6 -6 -6 -6 -6 -5 -5 -5 -5 -5 -4 -4 -5 -4 -4 -4 -4 -3 -3 -4 -4
8 5 4 4 5 6 6 5 2 1 1 1 1 1 -2 -3 -4 -5 -5 -6 -6 -6 -6 -6 -6 -6 -6 -6 -6 -6 -5 -6 -5 -5 -5 -4 -4 -4 -4 -4 -4 -4 -4 -4
8 7 3 4 4 3 2 5 4 3 -0 -1 -2 -2 -1 -2 -2 -5 -6 -6 -6 -6 -6 -6 -6 -6 -6 -6 -6 -6 -6 -6 -6 -6 -5 -5 -4 -4 -4 -4 -4 -5 -4 -4
4 4 4 3 3 2 4 5 5 0 -1 -2 -2 -4 -2 -4 -5 -6 -6 -6 -6 -6 -6 -6 -7 -7 -7 -6 -6 -6 -7 -7 -7 -6 -6 -5 -5 -4 -4 -4 -4 -4 -4 -4
4 3 3 3 3 2 0 2 2 -2 -3 -3 -4 -5 -6 -6 -6 -7 -7 -6 -6 -6 -7 -7 -7 -8 -8 -7 -7 -7 -7 -7 -7 -7 -7 -7 -6 -5 -5 -4 -4 -4 -4 -4
2 1 1 1 0 -1 -1 -2 -1 -1 -3 -4 -4 -5 -6 -6 -7 -8 -7 -7 -7 -7 -7 -8 -8 -8 -7 -7 -7 -7 -7 -8 -7 -7 -8 -8 -7 -7 -7 -6 -5 -5 -5 -4
4 4 -1 -0 -1 -1 -2 -2 -2 -3 -4 -5 -5 -6 -6 -7 -8 -8 -8 -8 -8 -8 -8 -8 -7 -7 -7 -8 -8 -8 -7 -8 -8 -7 -7 -8 -8 -8 -8 -9 -9 -8 -8 -7
3 3 1 -0 -1 -2 -3 -3 -4 -4 -5 -6 -6 -6 -7 -7 -8 -8 -8 -9 -9 -8 -8 -7 -7 -8 -8 -8 -7 -7 -7 -8 -8 -8 -8 -8 -8 -9 -9 -10 -10 -10 -11 -10
3 1 -1 0 -1 -1 -3 -4 -5 -5 -6 -6 -6 -7 -7 -7 -7 -8 -9 -9 -8 -7 -7 -7 -7 -7 -7 -7 -8 -7 -8 -9 -9 -9 -9 -9 -9 -10 -10 -10 -10 -11 -11 -11

GFSCGP_850_temp_114.txt.gz
Temp
12 9 8 9 9 10 11 10 10 11 12 12 12 13 13 14 14 14 14 15 15 13 11 11 12 12 13 13 14 15 15 15 14 14 14 15 15 15 15 15 15 14 14 14
10 9 11 11 10 10 10 10 10 12 13 13 11 11 12 13 13 14 14 14 13 11 10 11 11 12 13 12 12 13 13 13 13 13 12 11 12 13 13 14 14 15 14 14
9 11 12 11 11 11 11 11 11 11 10 11 10 9 11 13 13 14 14 14 14 13 11 9 10 10 11 12 11 12 12 12 12 12 11 10 11 11 12 12 13 13 13 14
9 11 11 11 11 11 10 10 10 9 8 8 9 8 11 12 12 12 13 13 10 9 7 9 9 9 9 9 9 10 10 11 11 11 11 10 10 10 10 10 11 12 12 12
10 12 10 10 11 11 10 9 9 8 7 6 8 6 11 12 11 12 11 8 7 6 6 6 7 8 6 7 8 7 8 11 10 9 10 9 8 8 9 9 9 9 10 10
10 11 11 11 11 11 8 8 8 7 6 4 9 8 7 9 10 11 9 6 5 5 5 5 5 5 5 6 7 6 7 10 8 8 7 8 7 7 8 8 9 9 9 9
10 9 9 10 9 9 7 7 7 5 6 6 9 8 8 8 7 9 6 4 3 4 3 3 4 4 4 4 6 6 8 8 7 7 7 6 6 6 6 7 8 8 8 9
8 8 9 10 10 9 7 7 6 6 6 6 9 6 7 5 3 3 4 3 2 2 2 2 2 2 2 4 5 4 5 6 6 6 6 5 5 5 6 6 6 7 7 7
8 9 12 10 10 10 7 6 8 7 6 4 7 8 7 3 2 1 0 1 1 0 0 0 1 1 1 2 1 1 3 4 4 4 4 4 4 5 4 5 5 6 8 8
10 9 10 11 11 10 8 8 6 5 6 7 8 6 5 4 3 2 1 -0 -0 -0 -0 -1 -0 0 0 -1 0 0 -1 0 0 1 2 2 3 3 4 4 4 5 7 8
9 9 8 10 9 8 8 8 7 7 5 6 7 6 4 3 4 2 1 0 0 -0 -1 -2 -2 -2 -2 -2 -2 -2 -0 0 1 1 1 2 1 2 2 3 4 4 6 6
7 7 7 9 10 10 10 9 8 5 6 5 5 7 4 5 5 4 3 1 -0 -0 -1 -1 -1 -2 -3 -4 -3 -3 -1 -0 0 1 -0 -0 -0 1 1 2 3 4 4 4
6 6 6 6 8 9 8 9 10 8 6 6 5 6 5 5 5 4 2 1 -0 -2 -3 -3 -4 -4 -4 -4 -4 -3 -2 -1 -1 -0 -1 -1 -1 -1 -0 0 1 2 3 3
7 5 6 7 8 8 8 10 9 8 5 6 6 6 6 3 3 2 1 -1 -2 -3 -3 -4 -5 -5 -5 -5 -5 -4 -3 -2 -2 -2 -2 -2 -2 -2 -2 -2 -0 0 0 1
4 4 6 8 9 9 9 10 10 9 8 6 7 6 4 3 1 1 -0 -1 -3 -4 -4 -5 -6 -6 -6 -6 -5 -4 -4 -4 -3 -3 -3 -3 -3 -3 -2 -2 -2 -2 -1 -1
5 3 4 5 8 9 9 10 9 10 9 5 5 4 3 1 -0 -1 -1 -2 -3 -4 -5 -6 -6 -6 -6 -6 -5 -5 -4 -4 -4 -4 -3 -3 -3 -3 -3 -3 -3 -3 -2 -2
4 3 4 5 6 6 6 7 7 5 5 6 4 4 1 -1 -1 -2 -3 -3 -4 -5 -6 -6 -6 -7 -6 -6 -6 -5 -5 -4 -4 -4 -4 -4 -4 -3 -3 -3 -3 -4 -3 -3
3 3 3 4 5 5 5 6 6 3 2 3 2 1 1 -2 -4 -5 -5 -5 -5 -6 -6 -7 -7 -6 -6 -6 -6 -6 -5 -5 -4 -4 -4 -4 -4 -4 -4 -3 -3 -3 -4 -4
5 3 3 3 4 5 5 5 3 3 0 0 1 -1 -3 -4 -4 -5 -5 -6 -6 -6 -7 -6 -6 -6 -6 -6 -6 -6 -5 -5 -5 -5 -5 -5 -5 -4 -4 -4 -4 -3 -3 -4
6 5 3 3 4 3 2 4 3 3 -0 -2 -1 -0 -3 -4 -3 -5 -6 -6 -6 -7 -7 -7 -7 -6 -6 -6 -6 -7 -7 -7 -7 -7 -6 -5 -5 -5 -4 -4 -5 -4 -4 -5
4 3 4 4 3 2 3 4 4 1 0 -2 -2 -3 -2 -3 -5 -6 -6 -7 -7 -7 -7 -7 -7 -6 -7 -6 -7 -7 -7 -7 -7 -8 -6 -6 -6 -5 -5 -5 -4 -4 -3 -4
4 4 3 3 1 2 -0 2 2 -3 -3 -3 -4 -4 -5 -5 -7 -7 -7 -7 -7 -7 -8 -7 -7 -6 -7 -7 -6 -7 -8 -8 -7 -7 -7 -7 -6 -6 -6 -5 -5 -4 -4 -4
2 1 1 1 -1 -2 -2 -2 -2 -1 -3 -4 -5 -6 -6 -6 -7 -7 -7 -7 -7 -8 -7 -7 -7 -7 -7 -7 -7 -6 -7 -7 -7 -7 -7 -7 -8 -7 -7 -6 -6 -6 -6 -6
2 2 -2 -1 -1 -2 -3 -2 -2 -2 -3 -4 -5 -6 -6 -7 -8 -8 -7 -7 -7 -7 -7 -8 -7 -7 -8 -7 -7 -7 -8 -8 -7 -7 -8 -8 -8 -9 -9 -9 -9 -10 -10 -10
2 2 -0 -1 -2 -2 -3 -3 -3 -4 -4 -5 -6 -6 -7 -7 -8 -8 -8 -8 -8 -8 -8 -7 -7 -7 -7 -7 -8 -8 -8 -8 -8 -8 -9 -10 -10 -10 -10 -11 -11 -11 -11 -11
2 -1 -1 -2 -1 -1 -3 -4 -4 -4 -5 -6 -6 -7 -7 -7 -7 -8 -8 -8 -8 -8 -7 -7 -7 -7 -8 -8 -8 -9 -8 -8 -9 -10 -10 -10 -10 -10 -10 -10 -11 -12 -12 -12

GFSCGP_850_temp_117.txt.gz
Temp
11 8 8 10 8 9 10 9 8 9 10 10 11 11 12 13 13 12 13 13 13 12 9 10 10 9 9 9 11 12 13 14 14 15 15 15 16 15 14 14 14 14 14 14
9 8 10 10 9 9 9 8 8 10 11 10 9 10 11 12 11 13 13 12 12 9 8 8 8 9 9 9 9 11 13 13 14 14 14 15 15 15 14 14 14 14 13 13
8 10 10 10 9 9 9 8 9 9 9 9 9 9 11 12 12 13 13 13 12 10 7 7 7 7 7 8 9 10 11 12 13 14 14 13 13 13 13 13 13 12 12 12
8 11 10 10 9 9 8 10 9 9 8 7 9 8 11 10 10 9 8 6 7 5 4 3 4 4 5 4 6 8 10 11 13 13 13 13 13 13 12 12 13 13 12 11
8 11 9 9 10 10 9 9 9 9 7 6 6 6 6 8 8 7 6 4 3 3 2 2 2 3 4 4 3 6 7 10 11 11 12 11 11 10 10 10 10 11 11 10
8 11 10 9 10 10 8 8 7 6 5 4 8 7 5 6 4 5 6 5 3 2 1 0 0 2 3 4 3 5 5 7 8 8 9 9 10 9 9 9 9 9 9 9
9 9 9 10 9 7 7 9 8 6 5 6 8 7 6 4 3 4 3 1 0 -0 0 -1 -1 -1 0 2 4 3 4 4 5 6 7 8 7 7 7 7 7 7 8 8
8 8 8 9 10 8 6 7 7 7 6 6 7 5 5 3 2 1 1 0 -0 -1 -1 0 -1 -2 -1 -1 -1 1 2 3 4 5 4 4 4 4 5 5 6 6 6 7
8 8 10 9 9 9 7 6 8 7 6 4 6 5 4 3 2 1 1 0 0 1 0 -0 -0 -1 -2 -1 -1 1 1 1 3 3 3 2 3 3 3 4 4 5 5 5
9 9 10 10 10 9 8 7 6 5 6 6 7 7 4 3 3 2 1 -0 -1 -1 -1 -1 -1 -1 -1 -1 -1 0 -0 1 1 1 1 1 1 1 2 2 3 4 4 5
9 8 9 9 8 7 7 7 7 6 5 6 6 5 2 4 3 2 1 -1 -2 -2 -2 -2 -2 -3 -3 -3 -3 -2 -2 -1 -0 -0 -0 -1 0 0 1 1 2 3 3 3
8 7 7 9 9 9 9 9 6 4 4 6 2 4 6 4 4 3 2 -1 -2 -3 -3 -3 -4 -4 -5 -4 -2 -2 -2 -1 -2 -2 -1 -0 -0 -1 -0 -0 0 1 1 1
6 6 5 6 6 7 6 8 8 7 6 6 5 6 5 5 4 3 1 -0 -2 -3 -3 -4 -5 -5 -5 -5 -4 -3 -3 -3 -2 -2 -2 -2 -2 -2 -1 -2 -1 -1 0 -0
7 6 6 7 7 6 6 7 9 8 5 6 6 6 5 4 3 1 -1 -2 -3 -3 -4 -5 -6 -5 -5 -3 -3 -3 -3 -3 -3 -2 -2 -2 -2 -2 -2 -2 -2 -2 -1 -1
5 5 4 5 6 5 5 6 7 8 7 6 7 5 5 3 2 -0 -2 -3 -3 -4 -5 -6 -6 -6 -6 -6 -6 -5 -4 -4 -3 -2 -3 -3 -3 -3 -3 -3 -3 -2 -2 -2
3 4 4 4 6 8 6 8 9 9 9 8 6 5 4 1 -0 -1 -2 -3 -4 -5 -5 -6 -6 -6 -7 -6 -6 -5 -5 -4 -4 -4 -4 -4 -3 -3 -3 -3 -3 -3 -2 -2
3 3 4 5 5 5 5 6 9 5 4 5 4 4 1 0 -1 -2 -3 -4 -5 -6 -6 -6 -6 -6 -7 -7 -6 -6 -6 -5 -4 -4 -4 -4 -3 -3 -3 -3 -3 -3 -3 -2
2 3 3 4 4 5 4 4 6 4 2 2 2 2 1 -2 -4 -4 -4 -4 -5 -6 -7 -6 -7 -6 -6 -6 -7 -6 -6 -6 -6 -6 -5 -4 -4 -3 -3 -3 -3 -4 -4 -4
3 2 3 2 4 4 4 3 2 4 2 0 1 -1 -3 -4 -5 -5 -5 -5 -5 -6 -7 -7 -6 -6 -6 -6 -7 -7 -6 -6 -6 -5 -5 -5 -4 -4 -4 -4 -4 -4 -4 -4
4 3 3 2 2 3 1 4 3 2 1 -1 -1 -3 -4 -4 -5 -5 -6 -6 -6 -7 -7 -7 -7 -6 -6 -7 -7 -7 -7 -7 -7 -6 -6 -6 -5 -5 -4 -5 -5 -5 -4 -4
3 2 3 3 3 2 2 4 4 1 1 -2 -2 -3 -4 -5 -4 -5 -6 -6 -7 -7 -7 -7 -7 -6 -7 -7 -7 -7 -7 -7 -7 -7 -7 -6 -6 -6 -5 -5 -5 -4 -4 -4
3 2 2 3 2 1 1 3 2 -2 -3 -2 -2 -3 -4 -5 -5 -6 -6 -7 -7 -7 -7 -7 -7 -7 -7 -7 -7 -7 -8 -8 -7 -7 -6 -6 -7 -7 -6 -6 -6 -6 -5 -5
1 1 1 2 0 -2 -2 -1 -2 -1 -2 -3 -3 -4 -4 -5 -6 -7 -7 -7 -7 -8 -8 -8 -7 -8 -7 -7 -7 -7 -8 -8 -7 -7 -7 -8 -8 -8 -7 -7 -7 -7 -7 -7
1 1 -1 -0 -2 -2 -3 -3 -2 -2 -2 -4 -4 -6 -5 -6 -7 -7 -7 -7 -7 -8 -8 -8 -8 -8 -7 -7 -8 -8 -8 -7 -7 -8 -9 -9 -9 -9 -10 -10 -10 -10 -10 -10
2 1 -0 -1 -2 -2 -3 -3 -3 -4 -4 -4 -5 -5 -5 -6 -7 -7 -8 -8 -8 -7 -7 -7 -7 -7 -8 -8 -8 -7 -8 -8 -8 -9 -9 -10 -10 -10 -11 -11 -11 -11 -12 -12
2 -1 -1 -0 -1 -1 -2 -3 -3 -4 -4 -5 -6 -7 -7 -6 -7 -7 -7 -8 -8 -7 -7 -7 -7 -8 -9 -8 -8 -8 -8 -8 -9 -9 -10 -10 -10 -10 -10 -11 -12 -12 -13 -13

GFSCGP_850_temp_120.txt.gz
Temp
10 7 7 8 8 8 8 8 8 8 9 9 9 10 10 12 12 11 11 11 11 8 6 7 7 7 7 8 9 10 11 11 12 12 13 14 14 14 14 14 14 14 13 13
8 7 8 9 8 8 8 8 7 8 9 10 8 8 9 9 10 7 5 9 7 5 5 5 5 6 7 7 7 8 10 10 11 11 12 13 14 14 13 13 13 13 13 13
7 10 9 9 8 8 8 7 8 8 9 8 7 8 9 9 7 6 4 3 3 3 3 4 4 3 4 4 5 5 6 8 8 10 10 12 12 13 13 13 13 12 12 12
8 10 10 9 9 8 7 8 8 8 8 6 8 6 7 7 6 7 4 3 2 1 1 1 2 2 2 2 2 3 4 7 4 6 7 10 11 13 14 14 13 12 11 11
9 9 9 8 9 8 8 9 9 8 7 6 7 6 6 5 5 6 4 2 1 0 -0 -0 -1 -0 -0 0 2 3 3 5 5 5 4 7 7 11 10 11 10 11 10 10
8 9 9 8 9 8 8 8 7 5 4 5 7 7 5 5 4 3 2 0 -0 0 0 0 0 0 -0 -0 2 3 3 4 6 6 4 5 6 8 9 9 10 10 10 9
9 8 9 10 9 7 8 8 6 5 5 6 7 6 5 4 3 3 1 0 1 2 2 2 1 1 1 0 1 3 3 3 3 5 3 3 3 5 5 6 8 7 8 8
6 8 7 8 9 7 5 7 8 7 5 6 6 5 6 4 2 2 1 0 -0 -0 -0 0 1 2 2 3 2 2 3 3 2 3 2 0 2 3 4 5 5 5 5 5
7 8 8 8 8 8 6 7 8 6 5 5 5 5 4 4 3 2 1 0 -0 -1 -1 -1 -1 -1 -1 -0 -0 0 1 1 -0 -0 -0 -0 0 1 3 4 3 3 4 4
9 8 9 8 9 8 7 7 6 5 7 7 6 6 4 3 3 1 1 -0 -1 -2 -2 -1 -1 -1 -2 -2 -2 -2 -1 -0 -2 -1 -1 -1 -0 1 1 2 2 2 2 2
8 8 9 8 8 6 6 6 6 6 6 6 6 5 2 4 3 1 0 -0 -1 -2 -2 -3 -3 -3 -3 -3 -3 -2 -2 -2 -2 -3 -3 -3 -2 -1 -1 -1 -1 -1 -0 -0
7 7 7 8 8 8 8 7 7 6 5 4 2 3 5 4 3 2 1 -0 -2 -2 -3 -4 -4 -4 -4 -4 -3 -3 -2 -2 -2 -3 -2 -2 -2 -2 -2 -2 -2 -2 -2 -2
6 5 6 5 6 6 7 7 8 7 6 6 4 5 5 5 4 3 1 -1 -2 -3 -4 -4 -4 -5 -6 -5 -5 -5 -4 -3 -3 -3 -2 -2 -2 -2 -2 -3 -3 -2 -2 -2
7 5 7 7 7 6 5 6 7 7 6 6 6 4 4 4 4 1 -1 -2 -3 -4 -4 -5 -6 -6 -6 -6 -5 -4 -4 -4 -3 -3 -3 -3 -3 -3 -3 -3 -3 -3 -3 -3
4 6 5 5 6 6 5 6 6 6 6 6 6 6 5 5 3 -1 -2 -3 -3 -4 -5 -6 -6 -6 -6 -6 -5 -5 -5 -4 -4 -3 -3 -3 -3 -3 -3 -3 -4 -4 -4 -4
3 4 4 4 5 6 5 5 5 5 5 5 5 5 5 2 -0 -2 -2 -3 -4 -5 -5 -6 -6 -6 -7 -7 -6 -5 -5 -4 -4 -4 -4 -4 -3 -3 -3 -3 -3 -3 -3 -3
3 3 3 5 5 4 5 5 6 6 4 6 6 5 1 -0 -1 -2 -3 -3 -4 -5 -6 -6 -6 -6 -7 -7 -6 -6 -6 -5 -5 -5 -5 -4 -4 -4 -4 -3 -3 -3 -3 -3
3 3 3 4 4 5 5 3 5 6 4 3 3 2 1 -0 -2 -3 -3 -3 -5 -6 -7 -7 -7 -7 -7 -7 -7 -7 -6 -6 -6 -6 -5 -4 -4 -4 -4 -4 -4 -4 -4 -4
3 2 3 4 4 4 4 3 2 3 3 1 1 -0 -3 -4 -4 -5 -4 -4 -5 -6 -7 -7 -6 -6 -7 -6 -6 -6 -7 -7 -6 -6 -5 -5 -5 -5 -4 -4 -4 -5 -4 -4
3 3 4 2 1 2 1 3 3 3 2 -1 -0 -2 -3 -3 -2 -6 -5 -5 -6 -6 -6 -6 -6 -6 -6 -6 -7 -7 -7 -7 -7 -7 -7 -6 -6 -5 -5 -6 -5 -5 -5 -5
3 2 3 2 2 2 2 3 4 2 2 -1 -1 -2 -4 -4 -4 -4 -5 -6 -6 -7 -7 -7 -7 -7 -7 -7 -7 -7 -7 -8 -8 -8 -7 -7 -7 -6 -6 -6 -5 -5 -5 -6
3 3 2 2 2 1 2 2 2 -1 -3 -3 -3 -4 -5 -5 -5 -5 -6 -7 -7 -7 -7 -7 -7 -7 -7 -8 -7 -7 -8 -9 -9 -8 -8 -8 -7 -6 -7 -7 -6 -7 -6 -6
2 -0 -1 1 -0 -3 -1 -1 -0 -1 -1 -2 -2 -4 -3 -5 -5 -6 -7 -7 -7 -7 -7 -8 -8 -7 -8 -8 -8 -8 -8 -9 -8 -8 -8 -8 -8 -8 -8 -7 -8 -8 -8 -8
1 1 -2 -1 -2 -3 -3 -2 -1 -1 -1 -1 -2 -3 -3 -4 -5 -6 -7 -7 -7 -7 -8 -8 -8 -8 -8 -8 -8 -8 -9 -9 -8 -8 -8 -9 -9 -9 -10 -10 -10 -10 -11 -11
1 0 -1 -2 -2 -2 -3 -2 -2 -2 -2 -3 -4 -4 -4 -4 -6 -6 -7 -7 -7 -8 -8 -8 -8 -8 -8 -8 -8 -9 -9 -8 -8 -8 -8 -9 -10 -11 -11 -11 -12 -12 -13 -13
1 -0 0 0 -0 -1 -2 -3 -3 -3 -4 -4 -5 -6 -6 -5 -6 -7 -7 -8 -8 -8 -8 -8 -8 -8 -8 -8 -9 -9 -8 -8 -8 -8 -9 -11 -11 -11 -11 -11 -12 -12 -13 -14

GFSCGP_850_temp_123.txt.gz
Temp
9 11 11 12 11 10 10 10 10 11 11 10 11 12 12 11 8 6 7 6 4 3 2 4 5 5 5 6 7 8 8 9 9 10 10 10 10 10 11 12 12 13 13 13
9 10 11 10 9 10 10 10 11 10 11 11 12 11 10 8 6 4 4 3 3 2 2 3 4 5 5 5 6 6 7 7 7 7 9 9 9 9 10 10 10 11 11 12
10 11 10 10 9 9 9 10 10 10 10 10 10 11 9 8 7 4 3 3 2 1 1 1 2 3 3 4 5 5 5 6 7 7 7 7 7 8 7 8 9 10 10 10
10 10 10 10 10 10 9 10 10 10 10 10 10 10 10 8 7 5 3 1 1 0 1 1 2 2 2 3 3 4 4 5 5 6 7 8 8 8 5 6 8 8 8 8
11 10 9 10 11 10 11 9 10 9 9 8 10 10 8 7 7 4 2 1 0 1 1 2 3 3 3 3 3 3 3 3 4 5 6 6 7 8 3 3 5 7 7 6
10 9 10 11 8 10 9 9 9 7 8 9 10 10 9 7 7 4 2 1 1 1 -0 0 0 1 2 2 3 3 4 4 4 4 5 5 4 5 5 5 5 7 7 6
9 9 9 10 10 8 10 10 9 8 7 9 8 8 12 5 5 6 4 1 0 0 -0 -1 -1 -0 -0 0 1 2 3 3 4 3 4 3 4 5 4 2 5 5 4 5
9 10 9 10 11 10 9 10 10 9 8 9 8 9 10 6 4 3 2 1 0 -1 -1 -1 -1 -1 -1 -1 0 0 0 1 2 2 3 4 1 1 2 3 3 2 1 2
8 9 8 8 9 11 8 9 11 9 7 7 10 9 6 5 3 3 2 1 -0 -1 -1 -2 -1 -1 -2 -1 -1 -0 -0 0 -0 0 0 2 2 1 1 2 1 -0 -1 -0
10 10 9 8 9 8 10 9 8 7 8 8 10 9 10 4 3 3 2 1 -1 -1 -2 -3 -2 -2 -2 -2 -2 -2 -2 -2 -2 -3 -3 -3 -2 -1 -1 -1 -1 -2 -1 -1
9 10 9 9 9 9 8 8 8 8 7 9 10 10 6 5 5 3 2 0 -1 -2 -2 -2 -3 -3 -3 -3 -2 -2 -3 -3 -3 -2 -2 -2 -2 -0 -1 -2 -2 -2 -2 -1
9 9 9 10 8 10 10 10 9 8 7 6 6 10 7 7 7 4 2 0 -1 -2 -2 -2 -3 -4 -5 -4 -3 -4 -3 -3 -4 -4 -3 -3 -3 -3 -2 -2 -2 -2 -2 -2
8 7 8 9 7 8 8 9 9 8 7 8 7 10 6 6 5 3 2 1 -1 -3 -3 -3 -5 -5 -6 -6 -6 -4 -4 -4 -4 -4 -3 -3 -3 -3 -2 -3 -3 -3 -3 -3
7 6 8 9 8 8 7 8 9 8 7 8 9 10 6 5 4 4 2 -0 -2 -3 -4 -5 -5 -6 -6 -6 -6 -5 -5 -4 -4 -4 -4 -3 -3 -4 -3 -3 -3 -3 -3 -3
6 7 7 8 8 8 9 9 9 8 8 8 9 9 9 6 5 4 0 -2 -3 -4 -5 -5 -6 -6 -7 -7 -6 -5 -5 -5 -5 -5 -4 -4 -4 -4 -4 -3 -3 -3 -3 -3
4 7 6 7 7 7 7 8 8 8 8 8 8 7 7 6 4 -0 -1 -2 -2 -4 -5 -6 -6 -6 -7 -7 -6 -5 -5 -5 -5 -5 -4 -5 -4 -3 -3 -3 -3 -3 -2 -2
4 5 5 6 7 6 5 7 7 8 8 8 7 8 4 3 2 0 -1 -2 -3 -4 -5 -6 -6 -7 -7 -7 -6 -5 -5 -5 -5 -4 -4 -4 -4 -4 -3 -3 -3 -3 -3 -3
4 4 4 6 6 5 9 5 6 7 8 7 6 5 4 4 1 -1 -2 -2 -4 -5 -6 -6 -7 -7 -6 -6 -6 -5 -6 -5 -5 -5 -5 -5 -5 -5 -5 -5 -4 -4 -4 -4
5 5 5 5 5 6 7 5 4 5 7 5 5 3 -1 -2 -2 -4 -3 -2 -3 -5 -6 -7 -7 -6 -6 -6 -6 -6 -6 -6 -6 -6 -6 -5 -6 -6 -6 -5 -5 -6 -5 -5
4 5 5 4 4 5 6 4 4 5 5 3 3 0 -2 -1 0 -1 -5 -4 -5 -5 -6 -6 -6 -6 -6 -6 -6 -6 -6 -6 -6 -7 -6 -6 -6 -6 -6 -6 -6 -6 -6 -6
3 3 4 3 4 5 5 4 4 5 6 1 1 -1 -2 1 0 -4 -5 -5 -5 -5 -6 -7 -7 -7 -6 -7 -7 -6 -7 -7 -7 -7 -7 -8 -7 -7 -7 -7 -6 -6 -7 -7
5 4 4 4 4 4 3 3 5 3 -2 -1 -2 -3 -3 -3 -4 -5 -5 -6 -6 -6 -7 -7 -7 -7 -7 -7 -7 -7 -6 -7 -7 -8 -8 -8 -8 -8 -7 -7 -6 -7 -7 -7
4 4 4 4 5 -0 -1 -0 0 0 -1 -2 -2 -3 -3 -5 -5 -6 -6 -6 -7 -7 -7 -7 -7 -7 -7 -7 -7 -7 -7 -8 -8 -8 -8 -8 -9 -8 -8 -7 -8 -9 -10 -9
3 1 3 3 1 -0 -1 -1 -0 -0 -0 -1 -1 -2 -3 -4 -6 -7 -6 -7 -7 -7 -7 -7 -7 -7 -7 -8 -8 -8 -8 -8 -9 -9 -9 -9 -9 -9 -9 -11 -13 -14 -14 -14
3 2 2 1 -1 -2 -2 -1 -0 -1 -1 -2 -2 -2 -3 -3 -5 -5 -7 -7 -7 -8 -8 -8 -8 -8 -8 -8 -8 -8 -8 -9 -9 -9 -9 -9 -10 -10 -11 -12 -14 -15 -15 -15
2 1 3 4 2 2 0 -1 -2 -1 -2 -2 -2 -4 -4 -3 -4 -6 -7 -7 -7 -8 -8 -8 -8 -8 -8 -8 -8 -9 -9 -9 -9 -9 -9 -10 -10 -11 -12 -13 -13 -13 -14 -16

GFSCGP_850_temp_126.txt.gz
Temp
13 15 17 19 18 18 16 16 17 18 17 15 16 17 17 15 13 12 11 9 7 5 4 4 3 3 3 5 7 8 8 9 9 9 9 9 9 7 8 9 10 10 11 11
13 15 18 15 15 15 15 15 16 17 15 14 16 16 15 13 10 9 8 7 5 5 4 3 3 3 3 3 5 6 7 7 8 9 9 8 8 7 8 8 7 8 9 10
17 17 14 14 14 14 15 15 16 15 15 16 14 17 13 12 9 7 6 5 4 4 4 3 3 3 2 2 3 4 5 6 6 7 7 6 7 5 7 8 8 8 8 8
15 16 14 14 15 15 15 15 14 14 14 15 14 15 16 14 11 10 8 6 5 4 3 2 2 1 1 2 3 3 4 4 5 5 5 6 3 3 6 6 8 8 7 8
15 13 13 14 15 14 15 13 13 13 14 14 15 14 17 14 13 11 9 5 4 3 1 1 0 -1 -1 1 2 2 1 3 4 4 5 4 5 5 4 3 6 7 7 7
15 13 14 15 13 14 14 13 13 13 13 13 16 15 18 14 14 12 9 6 4 2 1 -0 -1 -1 -1 -1 -1 0 0 1 2 3 4 3 3 4 4 5 3 6 5 5
13 13 13 13 13 13 14 13 13 14 13 14 13 14 16 14 12 12 9 7 3 2 0 -1 -1 -0 -1 -1 -2 -1 -1 -2 0 2 2 2 3 3 4 5 6 5 6 3
13 12 13 13 14 14 13 14 14 12 14 15 12 12 15 13 10 8 8 6 3 1 -0 -0 -1 -1 -2 -2 -2 -2 -2 -2 0 1 2 -0 2 -0 1 1 3 3 4 0
13 14 13 13 14 14 12 11 15 13 13 11 14 16 10 9 7 7 6 5 2 0 0 -1 -1 -2 -3 -3 -2 -1 -1 -2 -1 -1 0 1 0 -1 -1 -2 -1 -1 0 -0
14 13 13 12 12 13 13 14 10 11 11 12 15 15 15 7 5 6 6 4 2 0 -0 -1 -1 -2 -3 -4 -3 -2 -2 -1 -2 -2 -1 -2 -1 -1 -2 -3 -2 -2 -2 -2
14 13 12 11 12 13 11 12 12 13 13 12 13 14 11 10 10 7 6 5 1 1 1 0 -1 -2 -3 -4 -4 -4 -3 -3 -3 -2 -2 -3 -3 -2 -3 -4 -3 -3 -4 -3
13 13 13 12 15 15 15 14 13 11 11 11 10 12 13 13 12 10 8 5 1 2 0 0 -1 -2 -3 -4 -5 -5 -4 -3 -2 -3 -2 -3 -2 -3 -5 -4 -4 -4 -5 -5
11 10 11 12 12 12 12 14 14 13 12 10 9 12 11 11 12 10 8 3 1 1 0 0 -1 -3 -4 -5 -5 -5 -4 -3 -3 -3 -3 -3 -3 -3 -4 -5 -4 -5 -4 -4
9 11 10 11 11 10 8 10 11 11 8 11 12 13 14 11 10 8 5 2 1 0 0 0 -2 -3 -5 -5 -6 -5 -5 -5 -5 -4 -4 -3 -3 -3 -3 -4 -5 -5 -6 -5
10 9 10 11 12 12 10 11 12 11 11 9 11 12 14 15 12 9 5 3 1 0 -0 -1 -2 -4 -5 -6 -6 -6 -5 -5 -4 -4 -4 -4 -4 -3 -4 -4 -4 -5 -5 -6
9 8 10 10 11 11 11 12 12 12 12 12 12 12 14 13 11 8 5 2 1 0 -1 -2 -3 -5 -5 -6 -6 -6 -6 -6 -5 -4 -5 -4 -4 -4 -4 -4 -3 -5 -6 -6
7 8 8 8 10 9 8 10 11 12 13 12 11 13 15 13 10 7 4 2 1 -1 -2 -3 -4 -5 -6 -6 -6 -6 -6 -7 -6 -6 -5 -5 -4 -4 -4 -5 -5 -5 -5 -5
7 7 7 7 8 6 12 12 12 12 12 13 12 13 13 12 10 8 5 3 1 -1 -3 -4 -5 -6 -6 -6 -6 -7 -7 -7 -7 -5 -5 -5 -5 -5 -5 -5 -5 -5 -6 -5
8 7 5 6 8 10 11 11 7 7 10 12 11 12 11 7 3 2 2 1 -1 -3 -5 -5 -6 -6 -6 -6 -7 -7 -6 -7 -6 -5 -5 -6 -5 -5 -5 -5 -5 -6 -6 -7
7 7 7 7 6 7 9 12 9 8 8 12 10 11 5 2 3 4 -1 -2 -4 -5 -5 -6 -6 -6 -6 -6 -6 -6 -7 -6 -6 -6 -6 -6 -6 -6 -6 -6 -7 -7 -8 -8
4 4 4 5 5 8 9 8 7 6 9 7 8 7 3 3 2 -1 -3 -5 -4 -5 -6 -6 -6 -6 -6 -6 -6 -6 -7 -6 -8 -7 -7 -7 -7 -7 -7 -8 -8 -9 -8 -8
7 6 5 5 5 5 6 6 7 6 3 4 4 3 1 -2 -4 -4 -5 -6 -6 -7 -7 -7 -7 -7 -8 -8 -7 -6 -6 -7 -7 -7 -7 -7 -7 -8 -8 -9 -10 -10 -11 -12
5 6 7 7 8 5 6 5 2 2 4 2 1 1 -2 -4 -5 -6 -7 -7 -7 -7 -8 -8 -8 -8 -8 -8 -8 -8 -9 -9 -8 -7 -7 -8 -8 -9 -11 -12 -12 -12 -12 -12
8 6 6 5 7 6 3 2 2 1 2 1 -0 -2 -3 -5 -6 -6 -7 -7 -8 -8 -7 -7 -7 -7 -8 -8 -8 -9 -9 -9 -9 -10 -10 -11 -10 -11 -12 -12 -12 -12 -13 -12
7 6 6 5 4 3 3 2 2 -0 -0 -1 -2 -2 -4 -5 -6 -7 -8 -8 -8 -8 -8 -7 -7 -8 -8 -9 -9 -9 -9 -9 -9 -10 -10 -11 -11 -12 -12 -11 -12 -13 -15 -15
5 4 5 7 7 7 4 3 0 -1 -1 -2 -2 -4 -5 -5 -6 -7 -8 -8 -8 -9 -8 -9 -9 -9 -9 -9 -9 -9 -9 -9 -10 -10 -11 -11 -11 -12 -12 -12 -14 -13 -14 -15

GFSCGP_850_temp_129.txt.gz
Temp
16 17 19 20 21 22 21 21 21 23 23 20 19 20 22 21 19 18 17 14 12 10 8 7 6 6 6 5 5 5 8 8 9 9 8 6 8 8 8 8 8 8 10 10
17 17 21 22 20 20 19 19 20 22 21 18 19 20 21 21 18 16 15 13 11 10 9 8 7 6 5 5 4 4 4 5 7 6 6 6 5 5 6 7 6 7 8 10
18 20 20 20 18 18 19 19 20 20 20 20 19 19 21 18 15 13 12 11 10 9 9 7 6 5 5 3 3 3 3 3 3 5 4 4 5 5 4 4 6 7 5 8
18 20 18 18 18 19 18 21 18 17 17 18 19 18 20 19 15 14 13 12 10 9 7 7 5 3 2 2 2 1 1 1 1 3 2 3 3 3 3 3 3 2 5 5
18 18 18 17 19 19 18 17 17 17 17 18 19 18 20 22 17 16 15 12 9 7 6 5 3 2 2 2 2 1 1 1 0 3 3 3 2 1 1 1 1 1 1 5
18 17 18 18 18 18 17 16 16 16 17 15 18 18 20 22 19 19 16 12 9 6 4 3 2 2 2 1 1 1 1 1 -0 -1 -1 1 1 2 2 3 3 0 -1 -0
15 16 17 17 16 16 16 16 15 16 16 16 19 17 19 19 18 18 16 13 10 6 4 3 3 3 2 1 0 0 0 0 -1 -1 -2 -2 -2 -2 -2 -0 0 1 -1 -0
15 15 16 16 17 16 16 17 16 15 17 18 18 16 18 18 16 14 13 12 8 5 3 3 3 2 2 1 -1 -1 -1 -1 -2 -2 -2 -2 -1 -2 -3 -2 -1 -0 -1 -1
16 17 18 17 17 17 17 15 17 16 16 15 17 19 16 15 14 12 11 10 7 4 3 2 2 1 1 0 -2 -2 -2 -2 -3 -2 -3 -2 -3 -3 -4 -3 -3 -4 -1 -3
17 15 16 15 16 16 17 17 13 14 12 13 16 17 18 13 11 12 11 9 6 4 2 3 3 2 0 -2 -3 -2 -2 -3 -3 -3 -2 -3 -3 -4 -3 -4 -4 -4 -2 -3
16 16 15 14 14 16 15 14 15 15 15 14 15 17 16 14 14 11 11 10 5 3 3 3 3 2 0 -1 -2 -3 -3 -3 -3 -3 -2 -2 -3 -4 -3 -3 -2 -4 -3 -3
15 15 14 14 16 17 17 15 15 13 12 14 14 15 18 16 16 14 12 10 6 3 4 4 3 2 0 -1 -3 -3 -4 -4 -4 -4 -3 -4 -4 -4 -4 -4 -3 -3 -3 -3
14 12 12 13 15 15 14 16 15 15 15 13 12 13 16 16 16 15 14 11 6 4 4 4 3 2 -0 -2 -3 -4 -4 -4 -4 -4 -4 -4 -4 -5 -5 -5 -6 -6 -6 -5
11 12 13 12 14 12 10 13 15 15 12 12 13 14 16 14 14 15 13 10 6 4 4 4 3 1 -1 -3 -3 -3 -4 -4 -4 -4 -4 -5 -5 -5 -5 -6 -6 -6 -6 -6
9 10 12 13 14 10 10 10 11 12 12 9 12 13 14 15 15 13 12 9 6 4 4 4 2 0 -2 -3 -3 -4 -4 -4 -4 -5 -5 -5 -6 -6 -6 -6 -7 -7 -7 -7
10 7 9 9 11 13 12 13 14 14 14 13 13 13 15 16 16 16 12 8 6 5 3 3 2 -1 -2 -3 -3 -4 -4 -4 -5 -5 -6 -6 -6 -6 -5 -6 -7 -8 -8 -9
9 9 9 8 11 11 10 12 13 14 15 14 13 15 17 16 16 14 13 9 7 4 3 2 0 -2 -3 -4 -4 -4 -4 -4 -5 -6 -7 -6 -5 -4 -5 -6 -7 -8 -8 -10
5 5 6 7 9 6 11 14 14 13 14 15 15 15 16 16 15 13 12 9 5 4 2 -1 -2 -3 -4 -5 -5 -5 -5 -5 -6 -7 -6 -6 -6 -6 -8 -6 -6 -8 -9 -9
9 9 7 6 8 10 12 13 11 12 12 13 14 15 15 14 12 7 8 6 4 2 -1 -3 -4 -4 -5 -6 -6 -5 -5 -6 -7 -6 -5 -5 -5 -6 -7 -7 -7 -8 -10 -11
10 9 7 7 6 7 10 13 13 12 9 13 13 13 13 9 8 10 5 3 1 -1 -3 -4 -4 -6 -6 -6 -6 -6 -7 -7 -7 -8 -7 -7 -6 -6 -7 -7 -8 -9 -11 -11
7 7 6 7 6 8 11 13 11 8 10 11 12 12 11 8 5 4 0 -1 -0 -2 -4 -5 -6 -5 -6 -6 -7 -7 -8 -6 -7 -6 -7 -7 -8 -7 -9 -9 -10 -10 -11 -11
7 7 7 7 6 6 12 11 9 9 8 8 8 8 6 1 -1 -1 -2 -2 -3 -4 -5 -6 -6 -6 -7 -7 -7 -7 -6 -7 -8 -8 -7 -7 -8 -10 -11 -11 -11 -11 -11 -11
7 8 7 8 8 6 9 9 8 6 7 6 6 5 1 -2 -2 -3 -4 -4 -5 -5 -6 -7 -7 -6 -6 -6 -7 -7 -7 -7 -7 -7 -7 -7 -8 -9 -11 -11 -11 -10 -11 -11
10 10 8 8 9 10 8 8 6 5 6 5 4 3 -0 -3 -4 -5 -5 -5 -6 -6 -6 -6 -5 -5 -5 -5 -6 -7 -7 -7 -8 -8 -9 -10 -10 -10 -10 -10 -11 -12 -12 -12
8 9 8 8 9 7 7 7 6 5 4 4 3 1 -3 -4 -4 -5 -6 -6 -6 -6 -6 -5 -5 -5 -6 -6 -6 -7 -7 -7 -7 -8 -9 -9 -10 -10 -11 -10 -11 -13 -12 -13
9 8 7 8 7 6 7 6 5 4 3 2 2 -1 -3 -4 -5 -6 -6 -7 -7 -6 -6 -6 -6 -6 -6 -6 -7 -7 -7 -7 -8 -8 -8 -9 -9 -10 -10 -11 -12 -12 -13 -13

GFSCGP_850_temp_132.txt.gz
Temp
17 17 17 19 20 21 23 22 22 24 24 21 21 21 22 22 23 20 18 17 15 12 10 9 8 7 6 5 5 5 5 6 7 6 7 7 7 6 7 7 8 8 9 10
18 16 19 21 22 21 21 21 21 22 23 23 21 20 21 22 23 20 19 16 14 12 11 9 8 6 5 4 4 4 4 4 6 6 5 5 5 5 5 5 5 6 7 8
17 19 20 20 21 20 20 20 20 21 22 22 20 19 20 22 22 17 16 16 13 12 11 9 7 5 4 3 3 3 3 3 5 6 6 6 5 5 5 4 3 3 4 5
18 20 20 20 20 21 19 21 21 21 19 18 21 18 21 20 19 17 14 13 12 11 9 8 6 4 4 3 3 2 2 2 2 4 5 5 3 3 3 3 4 2 2 3
18 20 19 19 19 21 19 21 19 20 18 18 18 18 20 22 17 16 15 14 12 10 9 6 4 4 3 3 2 2 3 1 0 1 2 3 3 3 2 3 4 4 3 3
18 20 20 19 20 20 21 18 18 18 17 15 17 18 19 21 21 17 17 15 12 8 6 5 4 4 3 2 2 2 2 1 0 -1 -1 1 2 1 -0 1 1 3 2 3
17 18 19 19 18 19 18 16 14 14 15 15 19 19 19 20 20 19 17 14 11 8 6 5 5 4 3 2 2 1 1 0 -0 -1 -0 0 -0 -1 -2 -1 -0 -1 0 -1
15 15 17 18 17 17 17 16 16 14 15 17 20 18 19 19 18 18 16 13 10 7 5 5 5 4 3 2 2 2 -0 -1 0 -1 -1 -1 -1 -2 -3 -3 -3 -3 -3 -4
16 16 19 18 18 18 17 15 18 16 16 14 16 19 18 17 15 15 14 12 9 6 5 4 3 3 3 1 2 2 0 -1 -0 -1 -2 -2 -3 -2 -3 -4 -3 -4 -4 -4
16 15 18 19 18 18 17 18 14 14 13 13 16 17 16 14 13 14 13 11 8 6 5 4 4 3 2 0 1 1 1 -0 -1 -1 -1 -2 -2 -3 -3 -3 -3 -4 -3 -3
16 15 16 17 15 16 15 15 16 15 14 13 13 15 17 14 14 13 13 11 8 5 4 4 4 3 1 -0 -0 0 -1 -1 -1 -1 -2 -3 -3 -3 -4 -3 -3 -3 -3 -3
16 15 14 16 17 17 17 16 16 12 13 13 13 14 16 15 15 14 14 12 8 6 5 5 5 3 1 -0 -1 -1 -2 -3 -3 -3 -3 -4 -4 -4 -5 -5 -5 -5 -5 -4
15 13 12 14 15 16 15 16 16 15 14 12 11 13 18 18 17 16 15 13 8 6 6 5 5 3 1 -1 -2 -2 -3 -3 -3 -3 -3 -4 -4 -4 -5 -5 -5 -5 -5 -5
12 13 13 13 14 14 13 14 14 14 11 11 13 13 15 16 14 12 12 12 8 6 6 6 5 3 1 -1 -2 -3 -3 -3 -3 -4 -4 -5 -5 -5 -5 -6 -6 -6 -6 -5
10 10 12 13 14 14 12 11 11 10 10 9 11 13 14 15 13 11 12 12 9 7 6 6 5 3 -0 -1 -2 -3 -3 -3 -4 -4 -5 -5 -5 -6 -6 -6 -6 -7 -6 -6
10 9 10 9 11 11 11 8 10 10 11 11 11 13 15 15 15 11 11 12 9 7 6 6 5 2 -1 -2 -2 -3 -3 -3 -4 -5 -5 -6 -5 -5 -5 -6 -7 -7 -6 -6
9 8 8 8 10 9 8 9 10 12 14 14 13 14 16 16 16 15 12 12 9 7 6 5 4 1 -1 -2 -3 -3 -3 -4 -5 -5 -6 -5 -5 -5 -5 -5 -6 -6 -6 -6
6 5 7 7 8 6 10 13 13 13 14 14 14 15 15 15 15 13 13 10 8 7 5 4 2 -0 -2 -3 -3 -3 -4 -5 -6 -6 -6 -6 -5 -6 -6 -5 -6 -7 -7 -7
9 8 5 5 6 8 10 13 12 11 11 13 12 13 14 14 14 8 10 9 8 6 4 2 0 -1 -3 -4 -4 -4 -4 -5 -6 -5 -5 -5 -5 -5 -6 -6 -7 -8 -9 -9
8 8 5 5 5 5 9 12 13 12 7 11 12 12 13 13 10 8 6 7 5 4 3 1 -0 -2 -4 -4 -5 -5 -5 -6 -7 -6 -6 -5 -6 -6 -6 -7 -8 -9 -9 -10
7 7 6 6 6 7 10 12 12 8 8 11 11 9 10 8 5 3 4 3 3 2 1 -0 -2 -3 -4 -5 -5 -6 -6 -5 -6 -7 -8 -7 -7 -8 -8 -9 -9 -9 -10 -10
6 5 6 7 6 5 10 10 9 8 10 9 9 8 4 2 1 2 1 -0 -1 -1 -2 -2 -3 -4 -5 -6 -6 -6 -6 -7 -7 -6 -6 -7 -8 -9 -9 -10 -10 -10 -10 -10
7 7 7 5 7 7 8 8 9 9 8 8 8 6 5 0 -1 -1 -1 -2 -2 -2 -3 -4 -4 -5 -6 -7 -7 -6 -6 -6 -6 -6 -6 -7 -8 -9 -9 -10 -10 -10 -11 -11
9 10 8 8 9 10 10 10 9 7 7 7 6 3 2 -1 -2 -2 -2 -3 -3 -4 -4 -5 -5 -6 -6 -6 -7 -7 -7 -7 -7 -7 -9 -9 -10 -10 -10 -10 -9 -9 -10 -11
5 7 7 7 7 8 10 9 9 7 6 6 5 2 1 -1 -3 -3 -4 -4 -4 -5 -5 -5 -5 -5 -5 -5 -6 -7 -7 -7 -7 -8 -9 -9 -9 -8 -9 -9 -9 -10 -10 -11
7 6 6 6 8 7 6 6 6 7 5 5 3 -1 -2 -3 -3 -4 -4 -5 -5 -5 -5 -5 -5 -5 -5 -5 -6 -6 -6 -7 -7 -8 -8 -9 -9 -9 -10 -10 -10 -11 -12 -12

GFSCGP_850_temp_135.txt.gz
Temp
15 12 11 14 15 16 17 17 17 18 20 18 17 17 18 20 20 18 14 13 11 10 9 9 8 7 6 6 6 6 7 8 7 9 9 8 5 5 6 6 7 7 8 9
13 12 15 17 17 17 17 17 17 18 20 19 16 16 17 19 19 19 16 12 11 10 9 8 7 7 6 6 5 5 5 7 7 7 7 6 5 5 4 5 5 6 7 8
13 15 17 17 17 17 18 17 18 18 19 19 18 16 17 18 19 17 15 14 12 11 9 8 7 6 6 5 4 4 4 5 6 6 6 6 6 5 5 6 4 4 5 7
14 16 16 17 16 18 16 19 19 19 17 15 18 14 16 17 18 14 13 13 12 10 9 8 7 6 4 3 3 3 4 5 6 7 7 7 6 5 5 4 4 4 3 4
14 16 15 16 17 18 17 19 18 18 16 16 16 13 15 17 14 13 11 11 11 11 9 7 7 5 4 3 3 2 3 4 5 6 6 6 5 5 5 5 5 4 3 3
15 18 17 17 18 18 19 17 16 15 14 9 14 14 14 15 17 13 12 11 10 9 8 7 5 4 4 3 3 2 2 4 4 5 5 5 5 4 4 4 3 3 2 2
14 15 17 18 16 17 17 13 8 10 9 11 15 15 16 16 17 15 13 10 10 9 7 6 5 4 3 3 3 1 2 3 4 4 4 4 4 3 3 2 1 0 -1 -2
12 12 15 17 16 16 16 15 10 11 10 12 16 13 15 16 16 15 13 9 9 8 7 5 4 4 3 3 3 3 3 3 3 3 2 1 2 1 1 0 -1 -2 -3 -3
12 13 16 17 16 16 14 13 15 13 13 8 12 15 14 13 12 12 10 8 7 7 6 5 4 4 3 3 4 3 3 3 3 2 1 1 1 0 -1 -2 -3 -4 -4 -3
14 12 15 17 17 16 15 15 13 10 11 11 13 13 10 11 10 11 8 6 6 6 5 5 4 3 2 3 3 3 3 3 2 1 0 -0 -2 -2 -2 -2 -3 -3 -3 -3
14 12 12 15 15 15 14 14 14 13 11 10 10 9 14 11 11 10 8 7 6 6 5 4 3 3 2 2 2 2 2 1 0 -1 -2 -2 -3 -4 -3 -2 -3 -4 -4 -4
14 12 11 12 16 16 15 15 14 10 10 8 7 8 13 12 12 12 10 7 6 6 5 4 4 3 2 1 1 1 0 -1 -2 -3 -4 -4 -4 -4 -4 -4 -4 -5 -5 -5
9 10 9 12 14 14 14 14 14 13 10 10 7 10 13 14 13 13 12 8 7 6 5 4 4 3 2 1 1 -0 -2 -3 -3 -3 -3 -3 -3 -3 -4 -4 -5 -4 -5 -5
7 10 11 11 12 13 12 14 14 12 9 10 10 11 12 14 11 10 10 7 6 6 6 5 4 3 1 1 0 -1 -2 -3 -3 -4 -4 -4 -4 -4 -4 -4 -4 -4 -5 -5
5 6 6 10 11 11 10 11 12 11 10 9 10 9 11 12 10 10 9 8 8 7 5 5 4 3 1 1 -0 -2 -3 -4 -3 -4 -4 -4 -4 -4 -4 -4 -4 -4 -5 -6
5 5 4 5 9 10 8 10 10 10 10 10 9 8 11 12 13 11 11 9 8 5 5 5 5 3 1 1 -1 -2 -3 -4 -4 -4 -5 -5 -4 -4 -4 -4 -4 -4 -5 -5
6 5 5 6 8 8 7 9 9 10 10 10 9 9 10 11 12 13 11 11 8 6 6 5 4 3 1 0 -0 -3 -3 -3 -4 -4 -5 -4 -4 -4 -4 -4 -5 -6 -6 -6
5 5 5 5 6 5 8 10 10 10 10 10 12 12 12 13 12 11 13 12 8 6 6 5 4 2 0 -1 -1 -3 -3 -4 -5 -5 -5 -5 -4 -4 -5 -5 -6 -7 -7 -7
6 5 3 3 4 7 8 9 9 8 9 10 9 9 11 12 10 8 11 11 11 7 6 5 4 1 0 -0 -2 -3 -4 -4 -5 -5 -5 -5 -5 -5 -5 -6 -7 -9 -9 -9
6 5 3 2 3 5 6 10 11 9 6 8 9 9 8 9 5 2 7 9 8 6 5 5 3 2 1 -1 -3 -4 -4 -5 -5 -5 -5 -5 -5 -5 -6 -7 -8 -9 -10 -10
3 3 4 4 4 4 6 9 10 7 5 10 9 8 8 3 2 3 5 6 6 5 4 3 2 1 -1 -2 -3 -4 -5 -5 -5 -5 -6 -6 -6 -7 -7 -8 -9 -10 -10 -11
4 4 4 4 4 4 8 9 8 6 8 9 8 7 4 2 1 3 3 3 3 3 1 1 1 -1 -3 -3 -4 -5 -5 -6 -6 -6 -7 -7 -7 -8 -9 -9 -10 -11 -11 -11
3 3 3 4 3 5 8 8 9 9 8 8 7 6 6 1 -0 0 0 -1 -1 0 0 -0 -0 -2 -4 -4 -5 -5 -5 -5 -6 -7 -7 -8 -9 -9 -10 -10 -10 -10 -10 -10
5 4 1 4 5 6 8 8 9 8 8 7 7 6 5 3 -1 -1 -2 -2 -2 -1 -1 -2 -3 -4 -5 -5 -5 -5 -6 -6 -7 -7 -8 -9 -10 -10 -9 -9 -10 -9 -10 -10
3 3 2 2 3 6 7 7 6 7 6 6 5 5 4 2 -2 -2 -2 -3 -2 -2 -3 -3 -4 -5 -5 -6 -6 -6 -6 -7 -7 -8 -9 -9 -9 -9 -9 -9 -10 -10 -10 -11
4 2 1 2 5 5 5 6 6 5 5 4 4 2 1 -0 -3 -3 -3 -2 -3 -3 -4 -5 -5 -5 -6 -6 -6 -6 -7 -7 -8 -8 -9 -9 -9 -9 -9 -10 -10 -11 -11 -11